N4ASP-13 Weather Reports


time (UTC)temp
C
wind
direction
speed
KPH
gust
KPH
rain 1hr
cm
rain 24hr
cm
rain mn
cm
humidity
%
barometer
mb
20200531074539 16 13 3.2 6.4 0.00 0.00 0.00 79 941.8
20200531074440 16 28 3.2 6.4 0.00 0.00 0.00 79 941.8
20200531074334 16 13 3.2 6.4 0.00 0.00 0.00 79 941.8
20200531074234 16 0 3.2 6.4 0.00 0.00 0.00 79 941.7
20200531074128 16 23 3.2 6.4 0.00 0.00 0.00 79 941.7
20200531074028 16 21 3.2 6.4 0.00 0.00 0.00 79 941.7
20200531073922 16 13 3.2 6.4 0.00 0.00 0.00 79 941.8
20200531073822 16 36 3.2 6.4 0.00 0.00 0.00 79 941.8
20200531073716 16 355 3.2 6.4 0.00 0.00 0.00 79 941.8
20200531073616 16 0 3.2 6.4 0.00 0.00 0.00 79 941.8
20200531073509 16 344 3.2 6.4 0.00 0.00 0.00 79 941.9
20200531073410 16 0 3.2 6.4 0.00 0.00 0.00 79 941.9
20200531073305 16 355 3.2 6.4 0.00 0.00 0.00 79 941.9
20200531073205 16 355 3.2 6.4 0.00 0.00 0.00 79 941.8
20200531073058 16 350 4.8 8.0 0.00 0.00 0.00 79 941.8
20200531072958 16 329 4.8 8.0 0.00 0.00 0.00 79 941.8
20200531072852 16 355 4.8 8.0 0.00 0.00 0.00 78 941.8
20200531072752 16 355 4.8 9.7 0.00 0.00 0.00 78 941.8
20200531072646 16 0 4.8 9.7 0.00 0.00 0.00 78 941.8
20200531072546 16 0 4.8 9.7 0.00 0.00 0.00 78 941.8
20200531072438 16 0 4.8 9.7 0.00 0.00 0.00 78 941.8
20200531072340 16 355 4.8 9.7 0.00 0.00 0.00 78 941.9
20200531072233 17 342 4.8 9.7 0.00 0.00 0.00 78 941.9
20200531072134 16 348 4.8 9.7 0.00 0.00 0.00 78 941.9
20200531072028 17 313 4.8 9.7 0.00 0.00 0.00 78 941.9
20200531071928 17 339 4.8 9.7 0.00 0.00 0.00 78 941.9
20200531071823 17 319 4.8 8.0 0.00 0.00 0.00 78 941.9
20200531071722 17 339 4.8 8.0 0.00 0.00 0.00 77 941.9
20200531071616 17 329 4.8 8.0 0.00 0.00 0.00 77 941.9
20200531071516 17 308 4.8 8.0 0.00 0.00 0.00 77 941.9
20200531071409 17 304 4.8 12.9 0.00 0.00 0.00 77 941.9
20200531071310 17 319 4.8 12.9 0.00 0.00 0.00 77 942.0
20200531071203 17 318 4.8 12.9 0.00 0.00 0.00 77 942.0
20200531071103 17 315 4.8 12.9 0.00 0.00 0.00 77 942.0
20200531070957 17 337 4.8 12.9 0.00 0.00 0.00 77 941.9
20200531070858 17 327 4.8 12.9 0.00 0.00 0.00 76 942.0
20200531070751 17 294 4.8 12.9 0.00 0.00 0.00 77 942.0
20200531070652 17 329 4.8 12.9 0.00 0.00 0.00 77 942.0
20200531070552 17 307 4.8 12.9 0.00 0.00 0.00 77 942.0
20200531070452 17 287 4.8 12.9 0.00 0.00 0.00 77 942.0
20200531070349 17 336 4.8 9.7 0.00 0.00 0.00 76 942.0
20200531070249 17 308 4.8 9.7 0.00 0.00 0.00 76 942.0
20200531070149 17 291 4.8 9.7 0.00 0.00 0.00 76 942.1
20200531070049 17 299 4.8 9.7 0.00 0.00 0.00 76 942.0
20200531065950 17 290 4.8 9.7 0.00 0.00 0.00 77 942.0
20200531065844 17 329 4.8 9.7 0.00 0.00 0.00 76 942.0
20200531065745 17 304 4.8 9.7 0.00 0.00 0.00 76 942.1
20200531065637 17 308 4.8 9.7 0.00 0.00 0.00 76 942.1
20200531065538 17 290 4.8 9.7 0.00 0.00 0.00 76 942.0
20200531065434 17 307 4.8 9.7 0.00 0.00 0.00 76 942.1
20200531065333 17 313 4.8 9.7 0.00 0.00 0.00 76 942.0
20200531065234 17 327 4.8 9.7 0.00 0.00 0.00 75 942.1
20200531065133 17 296 4.8 9.7 0.00 0.00 0.00 75 942.0
20200531065031 17 312 4.8 9.7 0.00 0.00 0.00 75 942.1
20200531064929 17 319 4.8 9.7 0.00 0.00 0.00 75 942.0
20200531064829 17 325 4.8 9.7 0.00 0.00 0.00 75 942.0
20200531064730 17 325 4.8 9.7 0.00 0.00 0.00 75 942.0
20200531064630 17 313 4.8 9.7 0.00 0.00 0.00 75 942.0
20200531064525 17 344 4.8 8.0 0.00 0.00 0.00 75 942.1
20200531064425 17 337 4.8 8.0 0.00 0.00 0.00 75 942.1
20200531064318 17 327 4.8 11.3 0.00 0.00 0.00 75 942.0
20200531064218 17 329 4.8 11.3 0.00 0.00 0.00 75 942.0
20200531064112 17 323 6.4 11.3 0.00 0.00 0.00 74 942.0
20200531064013 17 331 6.4 12.9 0.00 0.00 0.00 75 941.9
20200531063906 17 344 6.4 12.9 0.00 0.00 0.00 75 942.0
20200531063806 17 331 6.4 12.9 0.00 0.00 0.00 75 941.9
20200531063659 17 336 6.4 12.9 0.00 0.00 0.00 74 941.9
20200531063600 17 345 6.4 12.9 0.00 0.00 0.00 74 942.0
20200531063454 17 338 6.4 12.9 0.00 0.00 0.00 74 941.8
20200531063354 17 333 6.4 12.9 0.00 0.00 0.00 73 941.9
20200531063251 17 337 6.4 12.9 0.00 0.00 0.00 74 941.9
20200531063151 17 317 6.4 12.9 0.00 0.00 0.00 74 941.9
20200531063051 17 332 6.4 14.5 0.00 0.00 0.00 74 941.9
20200531062951 17 297 6.4 16.1 0.00 0.00 0.00 73 941.9
20200531062852 17 329 6.4 16.1 0.00 0.00 0.00 73 941.9
20200531062748 17 315 6.4 16.1 0.00 0.00 0.00 73 941.9
20200531062651 17 349 6.4 16.1 0.00 0.00 0.00 73 941.9
20200531062544 18 335 6.4 16.1 0.00 0.00 0.00 73 941.8
20200531062444 18 311 6.4 16.1 0.00 0.00 0.00 73 941.9
20200531062342 18 291 6.4 16.1 0.00 0.00 0.00 73 941.9
20200531062241 18 300 6.4 16.1 0.00 0.00 0.00 72 941.9
20200531062142 18 318 6.4 16.1 0.00 0.00 0.00 72 942.0
20200531062041 18 304 6.4 16.1 0.00 0.00 0.00 72 941.9
20200531061941 18 306 6.4 16.1 0.00 0.00 0.00 72 941.8
20200531061841 18 292 6.4 16.1 0.00 0.00 0.00 72 941.8
20200531061741 18 321 6.4 16.1 0.00 0.00 0.00 72 941.9
20200531061642 18 296 6.4 16.1 0.00 0.00 0.00 72 941.8
20200531061540 18 340 6.4 16.1 0.00 0.00 0.00 72 941.9
20200531061439 18 285 6.4 16.1 0.00 0.00 0.00 72 941.8
20200531061339 18 285 6.4 16.1 0.00 0.00 0.00 72 941.9
20200531061240 18 321 6.4 16.1 0.00 0.00 0.00 72 941.8
20200531061139 18 336 6.4 16.1 0.00 0.00 0.00 72 941.8
20200531061038 18 265 6.4 16.1 0.00 0.00 0.00 72 941.9
20200531060939 18 275 6.4 14.5 0.00 0.00 0.00 72 941.8
20200531060840 18 319 6.4 14.5 0.00 0.00 0.00 72 941.8
20200531060736 18 304 6.4 14.5 0.00 0.00 0.00 72 941.8
20200531060636 18 325 6.4 14.5 0.00 0.00 0.00 72 941.8
20200531060535 18 295 6.4 14.5 0.00 0.00 0.00 71 941.7
20200531060436 18 296 6.4 14.5 0.00 0.00 0.00 72 941.8
20200531060335 18 300 6.4 14.5 0.00 0.00 0.00 71 941.7
20200531060236 18 286 6.4 14.5 0.00 0.00 0.00 71 941.7
20200531060135 18 288 6.4 14.5 0.00 0.00 0.00 70 941.7
20200531060036 18 325 6.4 14.5 0.00 0.00 0.00 71 941.7
20200531055930 18 313 6.4 14.5 0.00 0.00 0.00 70 941.7
20200531055830 18 317 6.4 14.5 0.00 0.00 0.00 70 941.7
20200531055732 18 287 6.4 14.5 0.00 0.00 0.00 71 941.7
20200531055632 18 315 6.4 14.5 0.00 0.00 0.00 71 941.7
20200531055531 18 292 6.4 14.5 0.00 0.00 0.00 71 941.7
20200531055431 18 0 6.4 14.5 0.00 0.00 0.00 71 941.7
20200531055331 18 311 6.4 14.5 0.00 0.00 0.00 71 941.7
20200531055232 18 262 6.4 14.5 0.00 0.00 0.00 71 941.7
20200531055128 18 313 4.8 14.5 0.00 0.00 0.00 71 941.7
20200531055027 18 275 4.8 14.5 0.00 0.00 0.00 71 941.7
20200531054927 18 287 4.8 14.5 0.00 0.00 0.00 71 941.7
20200531054826 18 275 4.8 14.5 0.00 0.00 0.00 71 941.8
20200531054726 18 311 4.8 14.5 0.00 0.00 0.00 71 941.8
20200531054627 18 338 4.8 14.5 0.00 0.00 0.00 71 941.8
20200531054527 18 275 4.8 14.5 0.00 0.00 0.00 70 941.7
20200531054428 18 294 4.8 11.3 0.00 0.00 0.00 71 941.8
20200531054323 18 290 4.8 11.3 0.00 0.00 0.00 71 941.7
20200531054224 18 311 4.8 11.3 0.00 0.00 0.00 70 941.7
20200531054123 18 304 4.8 9.7 0.00 0.00 0.00 71 941.8
20200531054024 18 288 4.8 9.7 0.00 0.00 0.00 70 941.6
20200531053923 18 296 4.8 9.7 0.00 0.00 0.00 70 941.7
20200531053823 18 289 4.8 14.5 0.00 0.00 0.00 70 941.7
20200531053723 18 306 4.8 14.5 0.00 0.00 0.00 70 941.7
20200531053625 18 306 4.8 14.5 0.00 0.00 0.00 70 941.6
20200531053519 18 318 4.8 14.5 0.00 0.00 0.00 71 941.6
20200531053419 18 311 4.8 14.5 0.00 0.00 0.00 71 941.6
20200531053320 18 316 4.8 14.5 0.00 0.00 0.00 71 941.6
20200531053220 18 319 4.8 14.5 0.00 0.00 0.00 71 941.6
20200531053119 18 306 4.8 14.5 0.00 0.00 0.00 71 941.6
20200531053019 18 303 4.8 14.5 0.00 0.00 0.00 71 941.7
20200531052920 18 300 4.8 14.5 0.00 0.00 0.00 71 941.7
20200531052820 18 305 4.8 11.3 0.00 0.00 0.00 70 941.6
20200531052716 18 281 4.8 11.3 0.00 0.00 0.00 70 941.6
20200531052616 18 273 4.8 11.3 0.00 0.00 0.00 71 941.7
20200531052514 18 306 4.8 11.3 0.00 0.00 0.00 71 941.8
20200531052414 18 310 4.8 11.3 0.00 0.00 0.00 71 941.8
20200531052315 18 297 4.8 11.3 0.00 0.00 0.00 71 941.7
20200531052216 18 277 4.8 11.3 0.00 0.00 0.00 71 941.7
20200531052115 17 279 4.8 8.0 0.00 0.00 0.00 71 941.7
20200531052016 17 284 4.8 8.0 0.00 0.00 0.00 71 941.7
20200531051912 17 311 4.8 8.0 0.00 0.00 0.00 71 941.7
20200531051812 17 294 4.8 8.0 0.00 0.00 0.00 71 941.7
20200531051711 17 276 4.8 11.3 0.00 0.00 0.00 71 941.7
20200531051612 17 308 4.8 11.3 0.00 0.00 0.00 71 941.6
20200531051511 17 322 3.2 11.3 0.00 0.00 0.00 71 941.7
20200531051412 17 298 3.2 11.3 0.00 0.00 0.00 71 941.6
20200531051311 17 338 3.2 11.3 0.00 0.00 0.00 71 941.7
20200531051212 17 311 3.2 11.3 0.00 0.00 0.00 71 941.7
20200531051107 17 291 3.2 11.3 0.00 0.00 0.00 71 941.6
20200531051006 17 355 3.2 11.3 0.00 0.00 0.00 71 941.6
20200531050908 17 298 3.2 11.3 0.00 0.00 0.00 71 941.6
20200531050808 17 286 3.2 11.3 0.00 0.00 0.00 71 941.6
20200531050706 17 331 3.2 11.3 0.00 0.00 0.00 71 941.7
20200531050607 17 331 3.2 11.3 0.00 0.00 0.00 71 941.6
20200531050507 18 294 3.2 11.3 0.00 0.00 0.00 70 941.6
20200531050408 18 289 3.2 11.3 0.00 0.00 0.00 71 941.6
20200531050303 18 246 3.2 11.3 0.00 0.00 0.00 70 941.6
20200531050203 18 322 3.2 8.0 0.00 0.00 0.00 71 941.6
20200531050104 18 322 3.2 8.0 0.00 0.00 0.00 72 941.6
20200531050004 18 322 3.2 8.0 0.00 0.00 0.00 70 941.6
20200531045903 18 331 3.2 8.0 0.00 0.00 0.00 70 941.6
20200531045804 18 304 3.2 8.0 0.00 0.00 0.00 69 941.5
20200531045703 18 296 3.2 9.7 0.00 0.03 0.00 69 941.6
20200531045604 18 297 3.2 9.7 0.00 0.03 0.00 69 941.5
20200531045459 18 294 4.8 9.7 0.00 0.03 0.00 69 941.5
20200531045358 18 258 4.8 9.7 0.00 0.03 0.00 68 941.5
20200531045259 18 255 4.8 16.1 0.00 0.03 0.00 69 941.5
20200531045200 18 255 4.8 16.1 0.00 0.03 0.00 69 941.5
20200531045059 18 306 4.8 16.1 0.00 0.03 0.00 68 941.5
20200531045000 18 294 4.8 16.1 0.00 0.03 0.00 67 941.5
20200531044858 18 289 4.8 16.1 0.00 0.03 0.00 68 941.5
20200531044800 18 285 4.8 16.1 0.00 0.03 0.00 67 941.5
20200531044656 18 286 4.8 16.1 0.00 0.03 0.00 67 941.5
20200531044556 18 309 3.2 16.1 0.00 0.03 0.00 67 941.5
20200531044454 18 325 3.2 16.1 0.00 0.03 0.00 67 941.6
20200531044355 18 301 3.2 16.1 0.00 0.03 0.00 67 941.5
20200531044255 18 289 3.2 11.3 0.00 0.03 0.00 67 941.5
20200531044156 18 277 3.2 11.3 0.00 0.03 0.00 67 941.5
20200531044055 18 317 3.2 11.3 0.00 0.03 0.00 67 941.6
20200531043956 18 313 3.2 11.3 0.00 0.03 0.00 67 941.6
20200531043850 18 311 4.8 11.3 0.00 0.05 0.00 67 941.6
20200531043751 18 311 4.8 11.3 0.00 0.05 0.00 66 941.5
20200531043652 18 305 4.8 11.3 0.00 0.05 0.00 66 941.5
20200531043551 18 291 4.8 11.3 0.00 0.05 0.00 67 941.6
20200531043451 18 311 4.8 11.3 0.00 0.05 0.00 66 941.5
20200531043353 18 291 4.8 11.3 0.00 0.05 0.00 65 941.5
20200531043250 18 305 4.8 12.9 0.00 0.05 0.00 65 941.6
20200531043153 18 296 4.8 12.9 0.00 0.05 0.00 66 941.6
20200531043047 18 278 4.8 12.9 0.00 0.05 0.00 65 941.5
20200531042947 18 295 4.8 12.9 0.00 0.08 0.00 66 941.6
20200531042847 18 294 4.8 12.9 0.00 0.08 0.00 66 941.6
20200531042748 18 293 4.8 12.9 0.00 0.08 0.00 65 941.6
20200531042646 18 293 4.8 12.9 0.00 0.08 0.00 65 941.5
20200531042548 18 295 4.8 12.9 0.00 0.08 0.00 66 941.6
20200531042446 19 249 4.8 12.9 0.00 0.08 0.00 65 941.7
20200531042348 19 307 4.8 12.9 0.00 0.08 0.00 65 941.6
20200531042244 19 288 4.8 12.9 0.00 0.08 0.00 65 941.6
20200531042142 19 309 4.8 12.9 0.00 0.10 0.00 65 941.6
20200531042044 19 36 4.8 12.9 0.00 0.10 0.00 65 941.6
20200531041943 19 283 4.8 12.9 0.00 0.10 0.00 65 941.6
20200531041843 19 279 4.8 12.9 0.00 0.10 0.00 65 941.6
20200531041743 19 291 4.8 12.9 0.00 0.10 0.00 65 941.7
20200531041643 18 284 4.8 12.9 0.00 0.10 0.00 65 941.6
20200531041544 19 317 4.8 11.3 0.00 0.10 0.00 65 941.6
20200531041440 18 279 4.8 11.3 0.00 0.13 0.00 65 941.6
20200531041339 19 261 4.8 11.3 0.00 0.13 0.00 65 941.5
20200531041239 19 312 4.8 11.3 0.00 0.13 0.00 65 941.7
20200531041139 19 263 4.8 11.3 0.00 0.13 0.00 65 941.6
20200531041039 19 265 4.8 11.3 0.00 0.13 0.00 65 941.6
20200531040940 19 328 3.2 9.7 0.00 0.13 0.00 66 941.6
20200531040839 18 271 3.2 9.7 0.00 0.15 0.00 66 941.6
20200531040740 19 271 3.2 9.7 0.00 0.15 0.00 65 941.6
20200531040636 19 299 3.2 6.4 0.00 0.15 0.00 66 941.6
20200531040536 19 292 3.2 6.4 0.00 0.15 0.00 65 941.6
20200531040436 19 290 3.2 6.4 0.00 0.15 0.00 67 941.6
20200531040335 19 267 3.2 6.4 0.00 0.18 0.00 65 941.6
20200531040236 19 300 3.2 8.0 0.00 0.18 0.00 66 941.6
20200531040129 19 296 3.2 8.0 0.00 0.18 0.00 65 941.6
20200531040030 19 275 3.2 8.0 0.00 0.18 0.00 65 941.6
20200531035924 19 290 3.2 8.0 0.00 0.18 0.18 65 941.6
20200531035824 19 275 3.2 8.0 0.00 0.18 0.18 66 941.6
20200531035718 19 276 3.2 8.0 0.00 0.18 0.18 65 941.5
20200531035618 19 239 3.2 12.9 0.00 0.20 0.18 64 941.5
20200531035513 19 239 3.2 12.9 0.00 0.20 0.18 65 941.4
20200531035412 19 246 3.2 12.9 0.00 0.20 0.18 65 941.5
20200531035305 19 242 3.2 12.9 0.00 0.20 0.18 64 941.5
20200531035206 19 275 3.2 12.9 0.00 0.20 0.18 64 941.5
20200531035059 19 304 3.2 12.9 0.00 0.23 0.18 65 941.4
20200531035000 19 326 3.2 12.9 0.00 0.23 0.18 64 941.4
20200531034853 19 308 3.2 12.9 0.00 0.23 0.18 64 941.4
20200531034753 19 308 3.2 12.9 0.00 0.23 0.18 65 941.4
20200531034649 19 260 3.2 12.9 0.00 0.23 0.18 63 941.4
20200531034548 19 272 3.2 11.3 0.00 0.23 0.18 63 941.4
20200531034442 19 291 3.2 11.3 0.00 0.25 0.18 64 941.5
20200531034342 19 336 3.2 11.3 0.00 0.25 0.18 63 941.4
20200531034235 19 258 3.2 9.7 0.00 0.25 0.18 64 941.4
20200531034136 19 295 1.6 6.4 0.00 0.28 0.18 63 941.5
20200531034033 19 311 1.6 6.4 0.00 0.28 0.18 66 941.5
20200531033934 19 312 1.6 6.4 0.00 0.28 0.18 64 941.4
20200531033834 19 267 1.6 3.2 0.00 0.28 0.18 63 941.4
20200531033734 19 264 1.6 3.2 0.00 0.28 0.18 65 941.5
20200531033633 19 264 1.6 11.3 0.00 0.30 0.18 66 941.4
20200531033533 19 264 1.6 11.3 0.00 0.30 0.18 67 941.5
20200531033433 19 264 1.6 11.3 0.00 0.30 0.18 65 941.5
20200531033334 19 264 1.6 11.3 0.00 0.30 0.18 65 941.6
20200531033229 19 264 3.2 11.3 0.00 0.33 0.18 66 941.6
20200531033130 20 264 3.2 11.3 0.00 0.33 0.18 62 941.5
20200531033029 20 296 3.2 14.5 0.00 0.33 0.18 63 941.5
20200531032929 20 296 3.2 14.5 0.00 0.33 0.18 63 941.6
20200531032829 20 296 3.2 14.5 0.00 0.36 0.18 63 941.6
20200531032729 20 296 3.2 14.5 0.00 0.36 0.18 61 941.5
20200531032630 20 317 3.2 14.5 0.00 0.36 0.18 64 941.5
20200531032530 20 333 3.2 14.5 0.00 0.36 0.18 62 941.6
20200531032426 20 333 4.8 14.5 0.00 0.38 0.18 63 941.6
20200531032327 20 333 4.8 14.5 0.00 0.38 0.18 62 941.6
20200531032226 20 261 4.8 14.5 0.00 0.38 0.18 63 941.5
20200531032125 20 278 4.8 14.5 0.00 0.41 0.18 63 941.5
20200531032025 20 297 3.2 9.7 0.00 0.41 0.18 63 941.5
20200531031926 20 306 3.2 9.7 0.00 0.41 0.18 62 941.5
20200531031825 20 182 3.2 9.7 0.00 0.41 0.18 63 941.6
20200531031726 20 279 3.2 9.7 0.00 0.43 0.18 63 941.5
20200531031621 20 263 3.2 9.7 0.00 0.43 0.18 61 941.5
20200531031521 20 304 3.2 9.7 0.00 0.46 0.18 62 941.6
20200531031421 20 343 3.2 8.0 0.00 0.46 0.18 62 941.6
20200531031322 20 305 3.2 8.0 0.00 0.46 0.18 62 941.6
20200531031221 20 329 3.2 8.0 0.00 0.48 0.18 62 941.6
20200531031121 20 310 3.2 8.0 0.00 0.48 0.18 61 941.6
20200531031021 20 280 3.2 8.0 0.00 0.48 0.18 61 941.5
20200531030922 20 238 3.2 8.0 0.00 0.48 0.18 61 941.6
20200531030818 20 299 3.2 8.0 0.00 0.51 0.18 62 941.5
20200531030717 20 283 3.2 8.0 0.00 0.51 0.18 62 941.5
20200531030618 20 281 3.2 11.3 0.00 0.53 0.18 61 941.5
20200531030518 20 283 3.2 11.3 0.00 0.53 0.18 61 941.5
20200531030417 20 281 3.2 11.3 0.00 0.53 0.18 62 941.5
20200531030318 20 249 3.2 11.3 0.00 0.53 0.18 61 941.5
20200531030217 20 300 3.2 11.3 0.00 0.53 0.18 61 941.5
20200531030118 20 267 3.2 11.3 0.00 0.56 0.18 61 941.5
20200531030013 20 302 3.2 11.3 0.00 0.56 0.18 61 941.5
20200531025912 20 315 3.2 11.3 0.00 0.56 0.18 63 941.5
20200531025904 20 303 3.2 8.0 0.00 0.58 0.18 61 941.5
20200531025853 20 325 3.2 11.3 0.00 0.58 0.18 61 941.5
20200531025838 20 304 3.2 11.3 0.00 0.58 0.18 61 941.6
20200531025514 20 227 3.2 8.0 0.00 0.58 0.18 60 941.5
20200531025413 20 303 3.2 8.0 0.00 0.58 0.18 62 941.6
20200531025314 20 286 3.2 8.0 0.00 0.58 0.18 61 941.6
20200531025210 20 183 3.2 8.0 0.00 0.61 0.18 60 941.6
20200531025108 20 281 3.2 8.0 0.00 0.61 0.18 62 941.5
20200531025010 20 221 3.2 8.0 0.00 0.61 0.18 61 941.6
20200531024909 20 274 3.2 8.0 0.00 0.61 0.18 61 941.6
20200531024809 20 281 3.2 9.7 0.00 0.61 0.18 62 941.6
20200531024710 20 281 3.2 9.7 0.00 0.61 0.18 61 941.5
20200531024610 20 281 3.2 9.7 0.00 0.61 0.18 60 941.6
20200531024510 20 281 3.2 9.7 0.00 0.61 0.18 61 941.5
20200531024405 20 281 4.8 9.7 0.00 0.61 0.18 60 941.5
20200531024305 20 281 4.8 11.3 0.00 0.61 0.18 60 941.5
20200531024205 20 279 4.8 11.3 0.00 0.61 0.18 59 941.5
20200531024106 20 275 4.8 11.3 0.00 0.61 0.18 59 941.6
20200531024005 20 300 4.8 11.3 0.00 0.61 0.18 59 941.5
20200531023905 20 281 4.8 11.3 0.00 0.61 0.18 59 941.5
20200531023805 20 245 4.8 11.3 0.00 0.61 0.18 59 941.5
20200531023706 20 237 4.8 11.3 0.00 0.61 0.18 59 941.5
20200531023602 20 292 4.8 11.3 0.00 0.61 0.18 60 941.4
20200531023502 20 312 4.8 11.3 0.00 0.61 0.18 58 941.5
20200531023402 20 273 4.8 11.3 0.00 0.61 0.18 58 941.5
20200531023301 20 286 4.8 11.3 0.00 0.61 0.18 58 941.6
20200531023200 20 309 4.8 11.3 0.00 0.61 0.18 58 941.5
20200531023102 20 287 4.8 11.3 0.00 0.61 0.18 58 941.6
20200531023000 20 290 4.8 9.7 0.00 0.61 0.18 59 941.6
20200531022903 20 323 4.8 9.7 0.00 0.61 0.18 59 941.6
20200531022758 20 306 4.8 9.7 0.00 0.61 0.18 59 941.6
20200531022658 20 283 3.2 8.0 0.00 0.61 0.18 59 941.6
20200531022558 20 291 3.2 8.0 0.00 0.61 0.18 59 941.6
20200531022457 20 300 3.2 8.0 0.00 0.61 0.18 59 941.6
20200531022357 20 295 3.2 14.5 0.00 0.61 0.18 59 941.7
20200531022258 20 299 4.8 14.5 0.00 0.61 0.18 60 941.6
20200531022158 20 318 4.8 14.5 0.00 0.61 0.18 60 941.7
20200531022058 20 294 4.8 14.5 0.00 0.61 0.18 59 941.7
20200531021953 20 240 4.8 14.5 0.00 0.61 0.18 60 941.6
20200531021853 20 303 4.8 14.5 0.00 0.61 0.18 60 941.7
20200531021753 20 252 4.8 14.5 0.00 0.61 0.18 59 941.7
20200531021652 20 295 4.8 14.5 0.00 0.61 0.18 58 941.6
20200531021553 20 317 4.8 14.5 0.00 0.61 0.18 57 941.7
20200531021453 20 317 4.8 14.5 0.00 0.61 0.18 58 941.6
20200531021353 20 309 4.8 12.9 0.00 0.61 0.18 57 941.7
20200531021254 20 294 4.8 12.9 0.00 0.61 0.18 57 941.7
20200531021149 20 297 4.8 12.9 0.00 0.61 0.18 57 941.7
20200531021049 20 280 4.8 12.9 0.00 0.61 0.18 57 941.7
20200531020950 20 307 4.8 11.3 0.00 0.61 0.18 57 941.7
20200531020849 20 309 4.8 11.3 0.00 0.61 0.18 57 941.7
20200531020749 20 282 4.8 11.3 0.00 0.61 0.18 56 941.6
20200531020649 20 298 4.8 11.3 0.00 0.61 0.18 56 941.7
20200531020549 20 294 4.8 11.3 0.00 0.61 0.18 56 941.7
20200531020450 21 283 4.8 11.3 0.00 0.61 0.18 56 941.7
20200531020346 20 286 4.8 12.9 0.00 0.61 0.18 56 941.7
20200531020245 20 297 4.8 12.9 0.00 0.61 0.18 57 941.7
20200531020146 20 331 4.8 12.9 0.00 0.61 0.18 56 941.6
20200531020046 21 303 4.8 12.9 0.00 0.61 0.18 56 941.6
20200531015944 21 280 4.8 12.9 0.00 0.61 0.18 57 941.7
20200531015845 21 308 4.8 12.9 0.00 0.61 0.18 56 941.6
20200531015745 21 311 4.8 12.9 0.00 0.61 0.18 57 941.6
20200531015646 21 273 4.8 12.9 0.00 0.61 0.18 56 941.5
20200531015541 21 298 4.8 12.9 0.00 0.61 0.18 56 941.5
20200531015441 21 296 4.8 12.9 0.00 0.61 0.18 56 941.6
20200531015342 21 304 4.8 11.3 0.00 0.61 0.18 56 941.6
20200531015241 21 303 4.8 11.3 0.00 0.61 0.18 56 941.5
20200531015140 21 298 4.8 11.3 0.00 0.61 0.18 57 941.6
20200531015042 21 297 4.8 11.3 0.00 0.61 0.18 56 941.5
20200531014940 21 289 4.8 11.3 0.00 0.61 0.18 56 941.5
20200531014842 21 302 4.8 11.3 0.00 0.61 0.18 56 941.5
20200531014737 21 267 4.8 11.3 0.00 0.61 0.18 56 941.5
20200531014636 21 297 4.8 11.3 0.00 0.61 0.18 56 941.5
20200531014536 21 299 4.8 11.3 0.00 0.61 0.18 56 941.5
20200531014438 21 270 4.8 11.3 0.00 0.61 0.18 57 941.6
20200531014337 21 310 4.8 9.7 0.00 0.61 0.18 56 941.5
20200531014237 21 302 4.8 9.7 0.00 0.61 0.18 56 941.4
20200531014137 21 298 4.8 9.7 0.00 0.61 0.18 56 941.4
20200531014037 21 306 4.8 9.7 0.00 0.61 0.18 56 941.4
20200531013933 21 319 4.8 9.7 0.00 0.61 0.18 57 941.3
20200531013833 21 284 4.8 9.7 0.00 0.61 0.18 56 941.3
20200531013733 21 319 4.8 9.7 0.00 0.61 0.18 57 941.3
20200531013634 21 313 4.8 9.7 0.00 0.61 0.18 56 941.3
20200531013532 21 319 4.8 9.7 0.00 0.61 0.18 56 941.3
20200531013434 21 298 4.8 9.7 0.00 0.61 0.18 56 941.3
20200531013332 21 299 4.8 9.7 0.00 0.61 0.18 56 941.2
20200531013233 21 288 4.8 11.3 0.00 0.61 0.18 57 941.3
20200531013130 20 311 4.8 11.3 0.00 0.61 0.18 57 941.3
20200531013028 20 292 4.8 12.9 0.00 0.61 0.18 56 941.3
20200531012929 20 306 4.8 12.9 0.00 0.61 0.18 56 941.2
20200531012830 20 296 4.8 12.9 0.00 0.61 0.18 57 941.2
20200531012728 20 288 4.8 12.9 0.00 0.61 0.18 59 941.2
20200531012629 20 296 4.8 12.9 0.00 0.61 0.18 57 941.2
20200531012528 20 327 4.8 12.9 0.00 0.61 0.18 57 941.2
20200531012430 20 297 4.8 12.9 0.00 0.61 0.18 58 941.2
20200531012326 20 283 4.8 12.9 0.00 0.61 0.18 57 941.3
20200531012226 20 292 4.8 12.9 0.00 0.61 0.18 58 941.2
20200531012124 20 5 4.8 12.9 0.00 0.61 0.18 59 941.2
20200531012025 20 311 4.8 11.3 0.00 0.61 0.18 60 941.2
20200531011925 20 300 4.8 11.3 0.00 0.61 0.18 61 941.2
20200531011825 20 287 4.8 11.3 0.00 0.61 0.18 59 941.2
20200531011725 20 307 4.8 11.3 0.00 0.61 0.18 57 941.2
20200531011626 20 349 4.8 11.3 0.00 0.61 0.18 56 941.1
20200531011520 20 17 4.8 11.3 0.00 0.61 0.18 57 941.2
20200531011419 20 279 4.8 11.3 0.00 0.61 0.18 59 941.2
20200531011312 21 317 4.8 11.3 0.00 0.61 0.18 57 941.2
20200531011210 21 284 4.8 14.5 0.00 0.61 0.18 56 941.0
20200531011108 21 311 4.8 14.5 0.00 0.61 0.18 56 941.1
20200531011007 21 303 4.8 14.5 0.00 0.61 0.18 59 941.1
20200531010907 21 321 6.4 14.5 0.00 0.61 0.18 56 941.0
20200531010806 21 301 6.4 14.5 0.00 0.61 0.18 56 941.0
20200531010705 21 284 6.4 14.5 0.00 0.61 0.18 56 941.0
20200531010606 21 301 6.4 14.5 0.00 0.61 0.18 55 941.0
20200531010505 21 285 6.4 14.5 0.00 0.61 0.18 55 941.0
20200531010400 21 317 6.4 14.5 0.00 0.61 0.18 55 941.0
20200531010258 21 321 6.4 14.5 0.00 0.61 0.18 55 941.0
20200531010154 21 324 6.4 14.5 0.00 0.61 0.18 55 941.0
20200531010053 21 338 4.8 14.5 0.00 0.61 0.18 55 941.0
20200531005948 21 290 6.4 17.7 0.00 0.61 0.18 55 941.1
20200531005847 21 284 4.8 17.7 0.00 0.61 0.18 55 941.0
20200531005740 21 298 4.8 17.7 0.00 0.61 0.18 55 941.1
20200531005641 21 288 4.8 17.7 0.00 0.61 0.18 55 941.0
20200531005535 21 292 4.8 17.7 0.00 0.61 0.18 55 941.0
20200531005434 21 0 4.8 17.7 0.00 0.61 0.18 55 941.0
20200531005328 21 333 4.8 17.7 0.00 0.61 0.18 55 941.1
20200531005227 21 304 4.8 17.7 0.00 0.61 0.18 55 941.0
20200531005121 21 305 6.4 17.7 0.00 0.61 0.18 54 941.1
20200531005021 21 0 4.8 14.5 0.00 0.61 0.18 55 941.0
20200531004916 21 286 4.8 12.9 0.00 0.61 0.18 57 941.0
20200531004815 21 273 4.8 12.9 0.00 0.61 0.18 55 941.0
20200531004710 21 311 6.4 14.5 0.00 0.61 0.18 56 940.9
20200531004609 21 323 6.4 14.5 0.00 0.61 0.18 55 941.0
20200531004504 21 288 6.4 14.5 0.00 0.61 0.18 54 941.0
20200531004403 21 273 6.4 14.5 0.00 0.61 0.18 55 941.0
20200531004256 21 269 6.4 14.5 0.00 0.61 0.18 54 941.0
20200531004157 21 273 6.4 14.5 0.00 0.61 0.18 54 940.9
20200531004051 21 292 6.4 14.5 0.00 0.61 0.18 55 941.0
20200531003950 21 291 6.4 14.5 0.00 0.61 0.18 55 941.0
20200531003844 21 263 6.4 14.5 0.00 0.61 0.18 54 941.0
20200531003743 21 302 6.4 14.5 0.00 0.61 0.18 56 941.0
20200531003637 21 315 6.4 14.5 0.00 0.61 0.18 56 940.9
20200531003537 21 278 6.4 14.5 0.00 0.61 0.18 54 941.0
20200531003432 21 273 6.4 14.5 0.00 0.61 0.18 54 941.0
20200531003331 21 300 6.4 14.5 0.00 0.61 0.18 56 940.9
20200531003225 21 277 6.4 14.5 0.00 0.61 0.18 54 940.9
20200531003125 21 278 4.8 12.9 0.00 0.61 0.18 55 940.9
20200531003020 21 271 6.4 12.9 0.00 0.61 0.18 54 940.9
20200531002920 21 281 6.4 12.9 0.00 0.61 0.18 54 940.9
20200531002813 21 290 6.4 11.3 0.00 0.61 0.18 55 940.9
20200531002713 21 306 6.4 11.3 0.00 0.61 0.18 55 941.0
20200531002606 21 267 6.4 11.3 0.00 0.61 0.18 53 940.9
20200531002507 21 297 4.8 11.3 0.00 0.61 0.18 55 940.8
20200531002359 21 319 4.8 11.3 0.00 0.61 0.18 53 941.0
20200531002259 21 269 4.8 11.3 0.00 0.61 0.18 54 941.0
20200531002152 21 294 6.4 16.1 0.00 0.61 0.18 55 940.9
20200531002053 21 306 6.4 16.1 0.00 0.61 0.18 54 941.0
20200531001948 21 283 6.4 16.1 0.00 0.61 0.18 54 940.9
20200531001847 21 292 4.8 16.1 0.00 0.61 0.18 55 940.9
20200531001742 21 281 4.8 16.1 0.00 0.61 0.18 56 940.8
20200531001641 22 294 6.4 16.1 0.00 0.61 0.18 55 940.9
20200531001542 22 298 6.4 16.1 0.00 0.61 0.18 55 940.9
20200531001441 22 317 6.4 16.1 0.00 0.61 0.18 54 940.8
20200531001341 22 339 6.4 16.1 0.00 0.61 0.18 54 940.9
20200531001240 22 309 6.4 19.3 0.00 0.61 0.18 54 940.8
20200531001138 22 290 6.4 19.3 0.00 0.61 0.18 54 940.7
20200531001040 22 291 6.4 19.3 0.00 0.61 0.18 55 940.8
20200531000939 22 333 8.0 19.3 0.00 0.61 0.18 54 940.8
20200531000833 22 299 8.0 19.3 0.00 0.61 0.18 54 940.7
20200531000733 22 319 8.0 19.3 0.00 0.61 0.18 55 940.7
20200531000627 22 304 8.0 19.3 0.00 0.61 0.18 55 940.8
20200531000527 22 291 8.0 19.3 0.00 0.61 0.18 54 940.7
20200531000422 22 277 6.4 19.3 0.00 0.61 0.18 54 940.8
20200531000321 22 271 6.4 19.3 0.00 0.61 0.18 55 940.8
20200531000214 22 317 6.4 16.1 0.00 0.61 0.18 55 940.7
20200531000115 22 304 6.4 16.1 0.00 0.61 0.18 55 940.7
20200531000008 22 294 6.4 16.1 0.00 0.61 0.18 55 940.7
20200530235908 22 336 4.8 16.1 0.00 0.61 0.18 55 940.6
20200530235801 22 283 4.8 12.9 0.00 0.61 0.18 55 940.7
20200530235701 22 286 4.8 12.9 0.00 0.61 0.18 56 940.7
20200530235555 22 330 4.8 12.9 0.00 0.61 0.18 55 940.7
20200530235456 22 299 4.8 12.9 0.00 0.61 0.18 56 940.6
20200530235350 22 283 4.8 12.9 0.00 0.61 0.18 55 940.7
20200530235249 22 300 4.8 12.9 0.00 0.61 0.18 55 940.7
20200530235143 22 321 4.8 16.1 0.00 0.61 0.18 55 940.5
20200530235043 22 311 4.8 16.1 0.00 0.61 0.18 56 940.6
20200530234937 22 17 4.8 16.1 0.00 0.61 0.18 56 940.6
20200530234837 22 323 4.8 16.1 0.00 0.61 0.18 56 940.5
20200530234730 22 338 6.4 16.1 0.00 0.61 0.18 54 940.6
20200530234631 22 301 6.4 16.1 0.00 0.61 0.18 56 940.7
20200530234526 22 294 6.4 16.1 0.00 0.61 0.18 56 940.7
20200530234424 22 318 6.4 16.1 0.00 0.61 0.18 55 940.6
20200530234317 22 298 6.4 16.1 0.00 0.61 0.18 55 940.6
20200530234217 22 337 6.4 14.5 0.00 0.61 0.18 55 940.6
20200530234111 22 307 6.4 14.5 0.00 0.61 0.18 55 940.5
20200530234011 22 348 6.4 14.5 0.00 0.61 0.18 55 940.6
20200530233906 22 336 6.4 14.5 0.00 0.61 0.18 54 940.5
20200530233805 22 298 6.4 14.5 0.00 0.61 0.18 55 940.5
20200530233700 22 309 6.4 14.5 0.00 0.61 0.18 54 940.4
20200530233601 22 348 4.8 11.3 0.00 0.64 0.18 56 940.5
20200530233500 22 308 4.8 9.7 0.00 0.64 0.18 55 940.5
20200530233400 22 319 4.8 11.3 0.00 0.64 0.18 57 940.3
20200530233300 22 309 4.8 11.3 0.00 0.64 0.18 56 940.4
20200530233158 22 337 4.8 11.3 0.00 0.66 0.18 58 940.3
20200530233056 22 304 4.8 11.3 0.00 0.66 0.18 58 940.4
20200530232958 22 355 4.8 11.3 0.00 0.66 0.18 56 940.4
20200530232857 22 317 4.8 11.3 0.00 0.66 0.18 56 940.3
20200530232752 22 315 4.8 11.3 0.00 0.66 0.18 55 940.3
20200530232651 22 313 4.8 11.3 0.00 0.69 0.18 56 940.2
20200530232546 22 310 4.8 11.3 0.00 0.69 0.18 57 940.3
20200530232446 22 292 4.8 11.3 0.00 0.69 0.18 56 940.3
20200530232340 22 298 4.8 12.9 0.00 0.69 0.18 56 940.2
20200530232239 22 302 4.8 12.9 0.00 0.71 0.18 56 940.2
20200530232132 22 327 6.4 12.9 0.00 0.71 0.18 57 940.2
20200530232033 23 300 6.4 14.5 0.00 0.71 0.18 55 940.2
20200530231927 23 298 6.4 14.5 0.00 0.71 0.18 56 940.1
20200530231826 23 315 6.4 17.7 0.00 0.71 0.18 56 940.2
20200530231719 23 313 6.4 17.7 0.00 0.74 0.18 56 940.1
20200530231619 23 0 6.4 17.7 0.00 0.74 0.18 56 940.1
20200530231513 23 290 6.4 17.7 0.00 0.74 0.18 55 940.1
20200530231413 23 287 6.4 17.7 0.00 0.76 0.18 56 940.0
20200530231307 23 325 6.4 17.7 0.00 0.76 0.18 56 940.1
20200530231207 23 355 6.4 17.7 0.00 0.76 0.18 54 940.0
20200530231101 23 321 6.4 17.7 0.00 0.76 0.18 53 940.0
20200530231001 23 317 6.4 17.7 0.00 0.79 0.18 54 940.0
20200530230854 23 297 6.4 19.3 0.00 0.79 0.18 58 940.0
20200530230755 23 242 6.4 19.3 0.00 0.79 0.18 55 940.0
20200530230649 23 339 6.4 19.3 0.00 0.79 0.18 57 940.0
20200530230549 23 286 8.0 19.3 0.00 0.79 0.18 57 940.0
20200530230444 23 267 8.0 19.3 0.00 0.81 0.18 57 940.0
20200530230342 23 302 8.0 19.3 0.00 0.81 0.18 55 940.1
20200530230235 23 295 8.0 19.3 0.00 0.84 0.18 54 940.1
20200530230135 23 267 8.0 19.3 0.00 0.84 0.18 53 940.0
20200530230030 23 311 6.4 19.3 0.00 0.84 0.18 54 940.0
20200530225929 23 290 6.4 19.3 0.00 0.84 0.18 54 940.0
20200530225824 23 290 6.4 16.1 0.00 0.86 0.18 55 940.0
20200530225722 23 309 6.4 16.1 0.00 0.86 0.18 56 940.0
20200530225618 23 335 6.4 16.1 0.00 0.86 0.18 55 940.1
20200530225518 23 291 6.4 16.1 0.00 0.89 0.18 57 940.1
20200530225418 23 319 6.4 16.1 0.00 0.89 0.18 58 940.0
20200530225318 23 254 6.4 16.1 0.00 0.89 0.18 61 940.0
20200530225217 23 234 6.4 16.1 0.00 0.89 0.18 62 940.0
20200530225116 23 234 6.4 16.1 0.00 0.89 0.18 57 939.9
20200530225015 23 332 6.4 16.1 0.00 0.89 0.18 57 939.8
20200530224916 23 288 6.4 16.1 0.00 0.89 0.18 57 940.0
20200530224815 23 288 6.4 16.1 0.00 0.89 0.18 57 939.9
20200530224710 23 355 6.4 17.7 0.00 0.91 0.18 59 939.8
20200530224609 23 299 6.4 17.7 0.00 0.91 0.18 59 939.8
20200530224505 23 304 8.0 17.7 0.00 0.91 0.18 60 939.7
20200530224404 23 300 8.0 17.7 0.00 0.91 0.18 60 939.7
20200530224304 23 306 8.0 17.7 0.00 0.91 0.18 59 939.7
20200530224203 23 315 8.0 17.7 0.00 0.91 0.18 60 939.7
20200530224103 23 292 8.0 17.7 0.00 0.91 0.18 59 939.7
20200530224000 23 314 8.0 17.7 0.00 0.91 0.18 58 939.6
20200530223900 23 291 8.0 17.7 0.00 0.91 0.18 58 939.7
20200530223800 23 343 8.0 17.7 0.00 0.91 0.18 58 939.6
20200530223701 23 333 8.0 17.7 0.00 0.91 0.18 57 939.6
20200530223556 23 343 6.4 17.7 0.00 0.91 0.18 58 939.6
20200530223455 23 325 6.4 17.7 0.00 0.91 0.18 60 939.7
20200530223349 23 308 6.4 12.9 0.00 0.91 0.18 59 939.7
20200530223249 23 294 6.4 12.9 0.00 0.91 0.18 59 939.6
20200530223144 23 275 6.4 12.9 0.00 0.91 0.18 58 939.7
20200530223043 23 312 6.4 12.9 0.00 0.91 0.18 58 939.7
20200530222936 23 290 6.4 12.9 0.00 0.91 0.18 57 939.8
20200530222837 23 315 6.4 12.9 0.00 0.91 0.18 58 939.8
20200530222730 23 279 6.4 12.9 0.00 0.91 0.18 58 939.7
20200530222631 23 292 6.4 12.9 0.00 0.91 0.18 59 939.7
20200530222526 23 306 6.4 12.9 0.00 0.91 0.18 58 939.8
20200530222426 23 312 6.4 17.7 0.00 0.91 0.18 57 939.7
20200530222319 23 319 4.8 17.7 0.00 0.91 0.18 57 939.8
20200530222219 23 331 4.8 17.7 0.00 0.91 0.18 57 939.8
20200530222114 23 309 4.8 17.7 0.00 0.91 0.18 57 939.8
20200530222013 23 287 4.8 17.7 0.00 0.91 0.18 59 939.8
20200530221908 23 332 4.8 17.7 0.00 0.91 0.18 57 939.7
20200530221807 23 283 4.8 17.7 0.00 0.91 0.18 55 939.8
20200530221701 23 295 4.8 17.7 0.00 0.91 0.18 59 939.8
20200530221601 23 0 4.8 17.7 0.00 0.91 0.18 59 939.8
20200530221455 23 343 3.2 12.9 0.00 0.91 0.18 62 939.8
20200530221355 23 333 3.2 12.9 0.00 0.91 0.18 61 939.8
20200530221250 23 300 3.2 12.9 0.00 0.91 0.18 61 939.7
20200530221149 23 324 4.8 12.9 0.00 0.91 0.18 62 939.8
20200530221043 23 314 4.8 12.9 0.00 0.91 0.18 60 939.8
20200530220943 23 303 4.8 12.9 0.00 0.91 0.18 59 939.9
20200530220836 23 303 4.8 12.9 0.00 0.91 0.18 59 939.9
20200530220738 23 329 4.8 12.9 0.00 0.91 0.18 58 939.9
20200530220631 23 309 4.8 11.3 0.00 0.91 0.18 59 939.9
20200530220531 23 275 4.8 11.3 0.00 0.91 0.18 59 939.9
20200530220426 23 324 4.8 11.3 0.00 0.91 0.18 58 939.8
20200530220325 23 300 4.8 11.3 0.00 0.91 0.18 58 939.9
20200530220218 23 300 4.8 11.3 0.00 0.91 0.18 59 939.9
20200530220120 23 308 6.4 11.3 0.00 0.91 0.18 60 939.9
20200530220014 23 315 4.8 16.1 0.00 0.91 0.18 60 939.9
20200530215913 23 312 6.4 16.1 0.00 0.91 0.18 61 939.9
20200530215807 23 355 6.4 16.1 0.00 0.91 0.18 60 939.8
20200530215707 23 281 6.4 16.1 0.00 0.91 0.18 60 939.8
20200530215602 23 309 6.4 16.1 0.00 0.91 0.18 62 939.8
20200530215502 23 310 6.4 16.1 0.00 0.91 0.18 58 939.8
20200530215355 23 355 6.4 16.1 0.00 0.91 0.18 58 939.8
20200530215255 23 309 6.4 16.1 0.00 0.91 0.18 58 939.8
20200530215149 24 280 6.4 16.1 0.00 0.91 0.18 58 939.9
20200530215049 24 306 4.8 12.9 0.00 0.91 0.18 62 939.8
20200530214944 24 296 6.4 12.9 0.00 0.91 0.18 60 939.8
20200530214842 24 313 4.8 12.9 0.00 0.91 0.18 61 939.8
20200530214736 24 287 4.8 12.9 0.00 0.91 0.18 58 939.8
20200530214638 24 304 4.8 12.9 0.00 0.91 0.18 57 939.8
20200530214530 24 301 4.8 12.9 0.00 0.91 0.18 58 939.8
20200530214431 24 298 4.8 12.9 0.00 0.91 0.18 58 939.9
20200530214326 24 309 4.8 12.9 0.00 0.91 0.18 58 939.8
20200530214225 24 322 4.8 12.9 0.00 0.91 0.18 56 939.9
20200530214119 24 303 4.8 12.9 0.00 0.91 0.18 58 939.8
20200530214019 24 318 3.2 12.9 0.00 0.91 0.18 59 939.8
20200530213912 24 299 3.2 12.9 0.00 0.91 0.18 58 939.8
20200530213813 24 300 4.8 12.9 0.00 0.91 0.18 59 939.8
20200530213706 24 276 4.8 12.9 0.00 0.91 0.18 57 939.9
20200530213607 25 273 4.8 12.9 0.00 0.91 0.18 56 939.9
20200530213502 25 312 4.8 12.9 0.00 0.91 0.18 56 939.8
20200530213401 25 293 4.8 12.9 0.00 0.91 0.18 55 939.9
20200530213256 25 305 4.8 12.9 0.00 0.91 0.18 56 939.8
20200530213155 25 311 4.8 12.9 0.00 0.91 0.18 56 939.9
20200530213050 25 274 4.8 12.9 0.00 0.91 0.18 60 939.8
20200530212949 25 274 4.8 12.9 0.00 0.91 0.18 56 939.8
20200530212844 25 325 4.8 12.9 0.00 0.91 0.18 56 939.8
20200530212744 25 326 4.8 12.9 0.00 0.91 0.18 59 939.8
20200530212636 25 317 4.8 12.9 0.00 0.91 0.18 59 939.8
20200530212537 24 336 3.2 12.9 0.00 0.91 0.18 56 939.8
20200530212432 24 301 4.8 8.0 0.00 0.91 0.18 58 939.8
20200530212331 24 315 4.8 8.0 0.00 0.91 0.18 58 939.8
20200530212226 24 309 4.8 12.9 0.00 0.91 0.18 57 939.8
20200530212126 24 338 4.8 12.9 0.00 0.91 0.18 57 939.7
20200530212018 24 348 6.4 12.9 0.00 0.91 0.18 57 939.8
20200530211919 24 306 6.4 12.9 0.00 0.91 0.18 57 939.8
20200530211813 25 295 6.4 17.7 0.00 0.91 0.18 56 939.8
20200530211713 25 323 6.4 17.7 0.00 0.91 0.18 58 939.8
20200530211606 25 296 6.4 17.7 0.00 0.91 0.18 55 939.8
20200530211507 25 310 6.4 17.7 0.00 0.91 0.18 56 939.7
20200530211400 25 294 6.4 17.7 0.00 0.91 0.18 54 939.7
20200530211301 25 318 6.4 17.7 0.00 0.91 0.18 55 939.8
20200530211155 25 312 4.8 17.7 0.00 0.91 0.18 56 939.8
20200530211055 25 293 4.8 17.7 0.00 0.91 0.18 58 939.7
20200530210950 25 323 4.8 17.7 0.00 0.91 0.18 57 939.8
20200530210849 25 355 4.8 17.7 0.00 0.91 0.18 55 939.7
20200530210744 25 284 3.2 14.5 0.00 0.91 0.18 57 939.8
20200530210644 25 323 3.2 14.5 0.00 0.91 0.18 56 939.8
20200530210537 25 330 3.2 14.5 0.00 0.91 0.18 61 939.8
20200530210437 25 282 3.2 11.3 0.00 0.91 0.18 62 939.7
20200530210331 25 320 4.8 11.3 0.00 0.91 0.18 63 939.8
20200530210231 25 278 4.8 14.5 0.00 0.91 0.18 57 939.7
20200530210126 25 300 4.8 14.5 0.00 0.91 0.18 55 939.8
20200530210026 25 280 3.2 14.5 0.00 0.91 0.18 58 939.7
20200530205919 25 5 3.2 14.5 0.00 0.91 0.18 59 939.8
20200530205819 25 5 3.2 14.5 0.00 0.91 0.18 55 939.8
20200530205712 25 292 3.2 14.5 0.00 0.91 0.18 54 939.8
20200530205613 25 298 3.2 14.5 0.00 0.91 0.18 54 939.8
20200530205508 25 306 3.2 14.5 0.00 0.91 0.18 56 939.7
20200530205408 25 304 1.6 14.5 0.00 0.91 0.18 56 939.8
20200530205301 25 280 1.6 11.3 0.00 0.91 0.18 56 939.8
20200530205201 25 319 1.6 8.0 0.00 0.91 0.18 60 939.8
20200530205055 25 328 1.6 8.0 0.00 0.91 0.18 62 939.7
20200530204955 25 328 1.6 8.0 0.00 0.91 0.18 63 939.8
20200530204848 25 328 1.6 12.9 0.00 0.91 0.18 63 939.8
20200530204749 24 328 1.6 12.9 0.00 0.91 0.18 60 939.8
20200530204644 24 317 1.6 12.9 0.00 0.91 0.18 60 939.9
20200530204543 24 317 3.2 12.9 0.00 0.91 0.18 60 939.8
20200530204438 25 317 3.2 12.9 0.00 0.91 0.18 57 939.8
20200530204337 25 15 3.2 12.9 0.00 0.91 0.18 60 939.9
20200530204232 25 260 3.2 12.9 0.00 0.91 0.18 53 939.8
20200530204131 25 227 3.2 12.9 0.00 0.91 0.18 56 939.8
20200530204024 25 300 3.2 12.9 0.00 0.91 0.18 55 939.8
20200530203925 25 339 3.2 12.9 0.00 0.91 0.18 54 939.7
20200530203818 25 271 3.2 12.9 0.00 0.91 0.18 60 939.7
20200530203719 25 271 3.2 12.9 0.00 0.91 0.18 57 939.8
20200530203612 25 270 3.2 12.9 0.00 0.91 0.18 56 939.7
20200530203513 25 267 3.2 12.9 0.00 0.91 0.18 55 939.8
20200530203406 25 234 3.2 6.4 0.00 0.91 0.18 57 939.8
20200530203307 25 298 3.2 6.4 0.00 0.91 0.18 59 939.8
20200530203202 25 286 3.2 6.4 0.00 0.91 0.18 60 939.8
20200530203102 25 304 3.2 6.4 0.00 0.91 0.18 60 939.8
20200530202954 25 307 3.2 6.4 0.00 0.91 0.18 60 939.8
20200530202855 25 25 1.6 6.4 0.00 0.91 0.18 61 939.9
20200530202749 25 57 1.6 6.4 0.00 0.91 0.18 58 939.9
20200530202649 25 275 1.6 6.4 0.00 0.91 0.18 59 939.8
20200530202543 25 344 1.6 6.4 0.00 0.91 0.18 60 939.8
20200530202444 25 338 1.6 6.4 0.00 0.91 0.18 60 939.8
20200530202336 25 338 1.6 6.4 0.00 0.91 0.18 65 939.8
20200530202237 25 338 1.6 6.4 0.00 0.91 0.18 59 939.8
20200530202130 25 342 1.6 6.4 0.00 0.91 0.18 61 939.9
20200530202031 25 232 1.6 3.2 0.00 0.91 0.18 58 939.8
20200530201924 25 232 1.6 3.2 0.00 0.91 0.18 60 939.8
20200530201825 25 286 1.6 3.2 0.00 0.91 0.18 64 939.8
20200530201718 25 286 1.6 3.2 0.00 0.91 0.18 61 939.8
20200530201619 26 286 1.6 3.2 0.00 0.91 0.18 59 939.8
20200530201513 26 287 1.6 3.2 0.00 0.91 0.18 56 939.8
20200530201413 26 280 1.6 4.8 0.00 0.91 0.18 60 939.8
20200530201306 25 280 1.6 4.8 0.00 0.91 0.18 59 939.8
20200530201207 25 279 1.6 4.8 0.00 0.91 0.18 59 939.8
20200530201101 25 279 3.2 4.8 0.00 0.91 0.18 59 939.8
20200530201001 25 280 3.2 4.8 0.00 0.91 0.18 60 939.8
20200530200854 25 280 1.6 4.8 0.00 0.91 0.18 61 939.8
20200530200755 25 245 3.2 4.8 0.00 0.91 0.18 60 939.8
20200530200648 25 248 3.2 4.8 0.00 0.91 0.18 65 939.8
20200530200549 25 248 3.2 4.8 0.00 0.91 0.18 64 939.8
20200530200443 26 286 1.6 4.8 0.00 0.91 0.18 62 939.8
20200530200344 26 304 1.6 4.8 0.00 0.91 0.18 57 939.7
20200530200236 26 346 1.6 4.8 0.00 0.91 0.18 57 939.7
20200530200137 26 187 1.6 4.8 0.00 0.91 0.18 61 939.7
20200530200030 25 134 1.6 4.8 0.00 0.91 0.18 56 939.7
20200530195931 25 240 1.6 4.8 0.00 0.91 0.18 55 939.7
20200530195825 25 240 1.6 9.7 0.00 0.91 0.18 59 939.8
20200530195725 26 238 1.6 9.7 0.00 0.91 0.18 59 939.8
20200530195618 26 339 1.6 9.7 0.00 0.91 0.18 59 939.8
20200530195519 26 338 1.6 9.7 0.00 0.91 0.18 60 939.8
20200530195414 26 221 3.2 9.7 0.00 0.91 0.18 57 939.8
20200530195313 26 331 3.2 9.7 0.00 0.91 0.18 61 939.8
20200530195206 26 331 3.2 9.7 0.00 0.91 0.18 64 939.8
20200530195107 26 331 3.2 11.3 0.00 0.91 0.18 57 939.9
20200530195002 26 16 4.8 12.9 0.00 0.91 0.18 54 939.9
20200530194901 26 343 4.8 12.9 0.00 0.91 0.18 57 939.9
20200530194755 27 348 4.8 17.7 0.00 0.91 0.18 60 939.9
20200530194655 27 350 6.4 17.7 0.00 0.91 0.18 56 939.9
20200530194548 27 355 6.4 17.7 0.00 0.91 0.18 56 939.9
20200530194449 27 338 6.4 17.7 0.00 0.91 0.18 56 939.9
20200530194344 27 342 6.4 17.7 0.00 0.91 0.18 57 939.9
20200530194244 27 336 6.4 17.7 0.00 0.91 0.18 58 940.0
20200530194137 27 325 6.4 17.7 0.00 0.91 0.18 56 939.8
20200530194037 27 15 6.4 17.7 0.00 0.91 0.18 57 939.9
20200530193932 26 11 6.4 17.7 0.00 0.91 0.18 57 939.9
20200530193832 27 317 6.4 17.7 0.00 0.91 0.18 53 939.9
20200530193724 26 336 6.4 12.9 0.00 0.91 0.18 58 940.0
20200530193625 26 325 4.8 12.9 0.00 0.91 0.18 58 939.9
20200530193518 26 313 4.8 12.9 0.00 0.91 0.18 59 940.0
20200530193419 26 350 4.8 12.9 0.00 0.91 0.18 57 940.0
20200530193317 26 355 4.8 11.3 0.00 0.91 0.18 59 940.0
20200530193216 26 355 3.2 11.3 0.00 0.91 0.18 62 940.1
20200530193116 25 319 3.2 11.3 0.00 0.91 0.18 58 940.0
20200530193016 25 303 3.2 11.3 0.00 0.91 0.18 63 940.0
20200530192916 25 300 3.2 9.7 0.00 0.91 0.18 61 940.0
20200530192816 24 313 3.2 9.7 0.00 0.91 0.18 61 940.1
20200530192717 24 330 3.2 9.7 0.00 0.91 0.18 64 940.1
20200530192610 24 288 4.8 16.1 0.00 0.91 0.18 62 940.2
20200530192511 24 283 4.8 20.9 0.00 0.91 0.18 68 940.2
20200530192404 24 355 4.8 20.9 0.00 0.91 0.18 67 940.2
20200530192305 24 319 4.8 20.9 0.00 0.91 0.18 62 940.1
20200530192200 25 323 6.4 20.9 0.00 0.91 0.18 62 940.2
20200530192059 25 273 6.4 20.9 0.00 0.91 0.18 63 940.2
20200530191952 25 270 6.4 20.9 0.00 0.91 0.18 63 940.1
20200530191853 26 284 6.4 20.9 0.00 0.91 0.18 61 940.1
20200530191748 26 284 6.4 20.9 0.00 0.91 0.18 58 940.1
20200530191647 26 336 4.8 20.9 0.00 0.91 0.18 61 940.1
20200530191542 26 5 4.8 14.5 0.00 0.91 0.18 60 940.1
20200530191443 26 321 4.8 14.5 0.00 0.91 0.18 57 940.1
20200530191334 26 349 4.8 14.5 0.00 0.91 0.18 56 940.1
20200530191236 26 288 3.2 14.5 0.00 0.91 0.18 58 940.2
20200530191130 26 273 3.2 12.9 0.00 0.91 0.18 61 940.2
20200530191029 26 334 3.2 12.9 0.00 0.91 0.18 61 940.2
20200530190923 25 344 3.2 12.9 0.00 0.91 0.18 63 940.2
20200530190823 25 355 3.2 8.0 0.00 0.91 0.18 67 940.3
20200530190718 24 326 3.2 6.4 0.00 0.91 0.18 65 940.2
20200530190617 24 321 1.6 6.4 0.00 0.91 0.18 62 940.2
20200530190511 24 274 1.6 6.4 0.00 0.91 0.18 60 940.2
20200530190411 24 315 1.6 6.4 0.00 0.91 0.18 62 940.2
20200530190304 23 279 1.6 6.4 0.00 0.91 0.18 64 940.2
20200530190205 24 279 1.6 8.0 0.00 0.91 0.18 62 940.2
20200530190058 24 346 3.2 8.0 0.00 0.91 0.18 65 940.3
20200530185959 24 346 3.2 11.3 0.00 0.91 0.18 61 940.2
20200530185854 25 346 3.2 11.3 0.00 0.91 0.18 63 940.2
20200530185754 25 346 3.2 12.9 0.00 0.91 0.18 64 940.3
20200530185647 25 266 4.8 12.9 0.00 0.91 0.18 62 940.3
20200530185547 26 294 6.4 14.5 0.00 0.91 0.18 61 940.3
20200530185441 26 296 6.4 14.5 0.00 0.91 0.18 61 940.3
20200530185341 26 297 6.4 14.5 0.00 0.91 0.18 61 940.3
20200530185235 26 248 6.4 14.5 0.00 0.91 0.18 57 940.3
20200530185136 26 311 6.4 14.5 0.00 0.91 0.18 59 940.3
20200530185029 26 349 6.4 14.5 0.00 0.91 0.18 61 940.3
20200530184929 26 302 6.4 14.5 0.00 0.91 0.18 58 940.3
20200530184822 26 333 6.4 14.5 0.00 0.91 0.18 60 940.3
20200530184723 26 310 4.8 14.5 0.00 0.91 0.18 61 940.4
20200530184618 26 325 4.8 12.9 0.00 0.91 0.18 63 940.3
20200530184518 26 0 3.2 11.3 0.00 0.91 0.18 64 940.3
20200530184411 25 342 3.2 11.3 0.00 0.91 0.18 62 940.4
20200530184311 25 25 3.2 11.3 0.00 0.91 0.18 61 940.4
20200530184205 25 302 3.2 11.3 0.00 0.91 0.18 62 940.4
20200530184105 25 311 3.2 11.3 0.00 0.91 0.18 68 940.5
20200530184000 24 0 3.2 11.3 0.00 0.91 0.18 65 940.4
20200530183859 24 331 3.2 11.3 0.00 0.91 0.18 68 940.5
20200530183753 24 272 4.8 11.3 0.00 0.91 0.18 67 940.5
20200530183653 24 272 4.8 11.3 0.00 0.91 0.18 62 940.4
20200530183546 25 254 4.8 11.3 0.00 0.91 0.18 61 940.5
20200530183447 25 298 4.8 11.3 0.00 0.91 0.18 62 940.5
20200530183341 25 307 4.8 11.3 0.00 0.91 0.18 59 940.6
20200530183241 25 277 3.2 11.3 0.00 0.91 0.18 61 940.5
20200530183136 26 355 3.2 11.3 0.00 0.91 0.18 61 940.5
20200530183036 26 294 3.2 9.7 0.00 0.91 0.18 60 940.6
20200530182929 26 322 3.2 9.7 0.00 0.91 0.18 62 940.5
20200530182829 26 302 1.6 9.7 0.00 0.91 0.18 68 940.5
20200530182724 25 23 1.6 6.4 0.00 0.91 0.18 67 940.5
20200530182623 25 48 1.6 6.4 0.00 0.91 0.18 67 940.6
20200530182516 25 17 1.6 6.4 0.00 0.91 0.18 72 940.6
20200530182417 24 252 1.6 3.2 0.00 0.91 0.18 69 940.6
20200530182310 24 252 1.6 3.2 0.00 0.91 0.18 79 940.6
20200530182211 23 252 1.6 3.2 0.00 0.91 0.18 75 940.6
20200530182104 23 252 1.6 3.2 0.00 0.91 0.18 76 940.6
20200530182005 23 252 1.6 3.2 0.00 0.91 0.18 77 940.7
20200530181858 23 252 1.6 3.2 0.00 0.91 0.18 77 940.6
20200530181800 23 252 1.6 3.2 0.00 0.91 0.18 74 940.6
20200530181653 23 252 1.6 3.2 0.00 0.91 0.18 72 940.6
20200530181553 23 252 1.6 4.8 0.00 0.91 0.18 73 940.6
20200530181448 23 252 1.6 4.8 0.00 0.91 0.18 75 940.7
20200530181348 23 252 1.6 4.8 0.00 0.91 0.18 74 940.7
20200530181240 23 252 1.6 4.8 0.00 0.91 0.18 74 940.7
20200530181141 23 252 1.6 4.8 0.00 0.91 0.18 75 940.7
20200530181035 23 252 1.6 4.8 0.00 0.91 0.18 77 940.7
20200530180935 23 252 1.6 4.8 0.00 0.91 0.18 73 940.7
20200530180828 23 252 1.6 6.4 0.00 0.91 0.18 69 940.7
20200530180729 24 252 1.6 6.4 0.00 0.91 0.18 70 940.7
20200530180622 24 252 1.6 6.4 0.00 0.91 0.18 72 940.7
20200530180523 25 325 1.6 6.4 0.00 0.91 0.18 73 940.7
20200530180417 25 323 1.6 6.4 0.00 0.91 0.18 65 940.7
20200530180317 25 323 3.2 6.4 0.00 0.91 0.18 65 940.7
20200530180210 25 323 3.2 6.4 0.00 0.91 0.18 68 940.7
20200530180111 25 323 3.2 6.4 0.00 0.91 0.18 62 940.8
20200530180004 25 323 3.2 6.4 0.00 0.91 0.18 66 940.7
20200530175905 26 278 3.2 6.4 0.00 0.91 0.18 64 940.7
20200530175802 26 275 3.2 6.4 0.00 0.91 0.18 65 940.7
20200530175700 26 276 3.2 6.4 0.00 0.91 0.18 66 940.7
20200530175602 26 68 3.2 6.4 0.00 0.91 0.18 64 940.8
20200530175459 26 348 3.2 6.4 0.00 0.91 0.18 67 940.8
20200530175358 25 348 4.8 17.7 0.00 0.91 0.18 63 940.9
20200530175256 25 321 3.2 17.7 0.00 0.91 0.18 67 940.9
20200530175156 25 330 3.2 17.7 0.00 0.91 0.18 63 940.8
20200530175057 25 315 3.2 17.7 0.00 0.91 0.18 69 940.8
20200530174958 25 261 3.2 17.7 0.00 0.91 0.18 69 940.8
20200530174850 25 260 3.2 17.7 0.00 0.91 0.18 68 940.9
20200530174751 25 315 3.2 17.7 0.00 0.91 0.18 67 940.8
20200530174645 25 315 3.2 17.7 0.00 0.91 0.18 65 940.9
20200530174545 25 296 3.2 17.7 0.00 0.91 0.18 65 940.9
20200530174439 25 317 3.2 17.7 0.00 0.91 0.18 67 940.9
20200530174339 25 328 3.2 9.7 0.00 0.91 0.18 68 940.8
20200530174233 25 298 3.2 6.4 0.00 0.91 0.18 69 940.9
20200530174133 25 298 1.6 6.4 0.00 0.91 0.18 69 940.8
20200530174026 25 133 1.6 6.4 0.00 0.91 0.18 71 940.7
20200530173927 25 328 1.6 6.4 0.00 0.91 0.18 69 940.8
20200530173824 25 264 1.6 6.4 0.00 0.91 0.18 72 940.8
20200530173723 25 253 3.2 6.4 0.00 0.91 0.18 71 940.8
20200530173623 25 252 3.2 8.0 0.00 0.91 0.18 67 940.9
20200530173521 25 253 3.2 8.0 0.00 0.91 0.18 66 940.9
20200530173421 25 253 3.2 8.0 0.00 0.91 0.18 69 940.9
20200530173318 25 227 1.6 8.0 0.00 0.91 0.18 69 940.8
20200530173218 25 294 1.6 8.0 0.00 0.91 0.18 68 940.8
20200530173119 25 294 1.6 8.0 0.00 0.91 0.18 69 940.8
20200530173019 25 294 1.6 8.0 0.00 0.91 0.18 72 940.8
20200530172912 25 250 3.2 8.0 0.00 0.91 0.18 68 940.8
20200530172813 25 260 3.2 8.0 0.00 0.91 0.18 73 940.8
20200530172706 25 317 1.6 8.0 0.00 0.91 0.18 77 940.8
20200530172607 24 345 1.6 4.8 0.00 0.91 0.18 76 940.8
20200530172500 24 188 1.6 4.8 0.00 0.91 0.18 74 940.8
20200530172401 24 132 1.6 4.8 0.00 0.91 0.18 74 940.8
20200530172254 23 132 1.6 4.8 0.00 0.91 0.18 75 940.8
20200530172155 23 132 1.6 4.8 0.00 0.91 0.18 77 940.9
20200530172055 23 129 1.6 8.0 0.00 0.91 0.18 76 940.8
20200530171955 23 129 1.6 9.7 0.00 0.91 0.18 75 940.9
20200530171852 23 125 1.6 9.7 0.00 0.91 0.18 74 940.8
20200530171752 24 123 1.6 9.7 0.00 0.91 0.18 73 940.8
20200530171654 24 123 3.2 9.7 0.00 0.91 0.18 73 940.8
20200530171552 24 123 3.2 9.7 0.00 0.91 0.18 73 940.8
20200530171453 24 157 3.2 9.7 0.00 0.91 0.18 72 940.8
20200530171346 24 157 3.2 9.7 0.00 0.91 0.18 72 940.8
20200530171247 24 157 3.2 9.7 0.00 0.91 0.18 69 940.8
20200530171141 24 157 3.2 9.7 0.00 0.91 0.18 68 940.8
20200530171041 24 128 1.6 4.8 0.00 0.91 0.18 74 940.9
20200530170935 25 200 1.6 4.8 0.00 0.91 0.18 72 940.8
20200530170834 25 200 1.6 4.8 0.00 0.91 0.18 70 940.8
20200530170728 25 250 1.6 4.8 0.00 0.91 0.18 74 940.8
20200530170629 25 144 3.2 4.8 0.00 0.91 0.18 74 940.7
20200530170522 25 355 3.2 4.8 0.00 0.91 0.18 79 940.9
20200530170423 24 273 3.2 6.4 0.00 0.91 0.18 74 940.8
20200530170316 24 273 3.2 6.4 0.00 0.91 0.18 76 940.9
20200530170216 24 274 3.2 6.4 0.00 0.91 0.18 75 940.9
20200530170112 24 273 3.2 6.4 0.00 0.91 0.18 73 941.0
20200530170011 24 281 3.2 6.4 0.00 0.91 0.18 71 940.9
20200530165903 24 249 3.2 6.4 0.00 0.91 0.18 76 940.9
20200530165804 24 223 3.2 6.4 0.00 0.91 0.18 75 940.9
20200530165705 24 213 3.2 6.4 0.00 0.91 0.18 76 941.0
20200530165605 24 214 3.2 6.4 0.00 0.91 0.18 73 940.9
20200530165506 24 234 3.2 6.4 0.00 0.91 0.18 75 941.0
20200530165405 24 238 1.6 6.4 0.00 0.91 0.18 75 941.0
20200530165305 24 324 1.6 6.4 0.00 0.91 0.18 76 940.9
20200530165204 23 226 1.6 6.4 0.00 0.91 0.18 75 941.0
20200530165102 23 225 1.6 6.4 0.00 0.91 0.18 75 940.9
20200530165004 23 226 1.6 6.4 0.00 0.91 0.18 73 940.9
20200530164904 23 226 1.6 6.4 0.00 0.91 0.18 74 941.0
20200530164802 23 216 1.6 6.4 0.00 0.91 0.18 76 941.0
20200530164701 23 173 1.6 6.4 0.00 0.91 0.18 75 941.0
20200530164604 23 173 1.6 6.4 0.00 0.91 0.18 75 941.0
20200530164504 23 173 1.6 6.4 0.00 0.91 0.18 75 941.0
20200530164359 23 173 1.6 6.4 0.00 0.91 0.18 76 941.0
20200530164258 23 173 3.2 6.4 0.00 0.91 0.18 74 941.0
20200530164157 23 160 3.2 4.8 0.00 0.91 0.18 74 941.0
20200530164058 23 113 3.2 4.8 0.00 0.91 0.18 70 941.0
20200530163958 23 235 1.6 4.8 0.00 0.91 0.18 72 941.0
20200530163858 23 235 3.2 4.8 0.00 0.91 0.18 75 941.0
20200530163758 23 235 3.2 6.4 0.00 0.91 0.18 72 940.9
20200530163659 23 235 3.2 6.4 0.00 0.91 0.18 78 941.0
20200530163554 23 294 3.2 6.4 0.00 0.91 0.18 80 941.0
20200530163455 23 294 3.2 6.4 0.00 0.91 0.18 82 941.0
20200530163354 23 294 3.2 6.4 0.00 0.91 0.18 75 941.0
20200530163254 23 294 3.2 6.4 0.00 0.91 0.18 75 941.1
20200530163154 23 294 3.2 6.4 0.00 0.91 0.18 75 941.0
20200530163054 23 341 3.2 6.4 0.00 0.91 0.18 76 941.1
20200530162955 23 217 3.2 6.4 0.00 0.91 0.18 71 941.0
20200530162855 23 217 3.2 6.4 0.00 0.91 0.18 73 941.0
20200530162750 23 228 1.6 6.4 0.00 0.91 0.18 72 941.0
20200530162649 23 228 1.6 4.8 0.00 0.91 0.18 73 941.0
20200530162550 23 208 1.6 4.8 0.00 0.91 0.18 77 941.0
20200530162452 24 190 1.6 4.8 0.00 0.91 0.18 74 941.1
20200530162350 24 244 1.6 4.8 0.00 0.91 0.18 77 941.1
20200530162251 24 41 1.6 4.8 0.00 0.91 0.18 74 941.0
20200530162149 24 300 1.6 4.8 0.00 0.91 0.18 77 941.2
20200530162051 24 302 1.6 4.8 0.00 0.91 0.18 82 941.2
20200530161945 23 260 1.6 4.8 0.00 0.91 0.18 81 941.2
20200530161845 23 257 1.6 4.8 0.00 0.91 0.18 80 941.3
20200530161745 23 257 1.6 4.8 0.00 0.91 0.18 79 941.2
20200530161648 23 257 1.6 4.8 0.00 0.91 0.18 76 941.3
20200530161546 23 257 1.6 4.8 0.00 0.91 0.18 81 941.3
20200530161445 23 208 1.6 4.8 0.00 0.91 0.18 81 941.2
20200530161346 23 208 1.6 4.8 0.00 0.91 0.18 78 941.3
20200530161247 23 208 1.6 4.8 0.00 0.91 0.18 77 941.2
20200530161142 23 208 1.6 4.8 0.00 0.91 0.18 79 941.2
20200530161043 23 208 1.6 4.8 0.00 0.91 0.18 78 941.2
20200530160942 23 208 1.6 4.8 0.00 0.91 0.18 76 941.2
20200530160842 23 208 1.6 4.8 0.00 0.91 0.18 76 941.3
20200530160742 23 208 1.6 4.8 0.00 0.91 0.18 79 941.3
20200530160642 23 221 1.6 4.8 0.00 0.91 0.18 81 941.3
20200530160542 23 225 1.6 4.8 0.00 0.91 0.18 76 941.4
20200530160443 23 338 1.6 4.8 0.00 0.91 0.18 75 941.5
20200530160338 23 271 1.6 4.8 0.00 0.91 0.18 77 941.5
20200530160239 23 191 1.6 4.8 0.00 0.91 0.18 76 941.6
20200530160138 23 186 1.6 4.8 0.00 0.91 0.18 79 941.6
20200530160038 23 186 1.6 6.4 0.00 0.91 0.18 83 941.5
20200530155938 23 184 1.6 6.4 0.00 0.91 0.18 81 941.5
20200530155838 23 280 1.6 6.4 0.00 0.91 0.18 79 941.6
20200530155737 23 280 1.6 6.4 0.00 0.91 0.18 78 941.6
20200530155639 23 279 1.6 8.0 0.00 0.91 0.18 79 941.6
20200530155535 23 277 1.6 8.0 0.00 0.91 0.18 79 941.5
20200530155435 23 277 3.2 8.0 0.00 0.91 0.18 78 941.5
20200530155334 23 119 3.2 8.0 0.00 0.91 0.18 76 941.5
20200530155235 23 191 3.2 8.0 0.00 0.91 0.18 79 941.5
20200530155134 23 196 3.2 8.0 0.00 0.91 0.18 78 941.5
20200530155034 23 169 3.2 8.0 0.00 0.91 0.18 79 941.6
20200530154934 23 327 3.2 8.0 0.00 0.91 0.18 79 941.5
20200530154835 23 325 3.2 8.0 0.00 0.91 0.18 75 941.5
20200530154730 23 327 1.6 8.0 0.00 0.91 0.18 76 941.4
20200530154631 22 324 1.6 4.8 0.00 0.91 0.18 76 941.6
20200530154530 22 172 3.2 4.8 0.00 0.91 0.18 81 941.5
20200530154431 22 300 3.2 11.3 0.00 0.91 0.18 78 941.6
20200530154330 22 300 3.2 11.3 0.00 0.91 0.18 80 941.5
20200530154231 23 300 3.2 11.3 0.00 0.91 0.18 79 941.5
20200530154131 23 303 3.2 11.3 0.00 0.91 0.18 78 941.5
20200530154031 23 235 3.2 11.3 0.00 0.91 0.18 80 941.5
20200530153926 23 223 3.2 11.3 0.00 0.91 0.18 83 941.5
20200530153826 23 223 3.2 11.3 0.00 0.91 0.18 81 941.6
20200530153725 23 225 3.2 11.3 0.00 0.91 0.18 79 941.5
20200530153625 23 224 3.2 11.3 0.00 0.91 0.18 78 941.6
20200530153526 22 335 3.2 11.3 0.00 0.91 0.18 76 941.6
20200530153426 22 316 1.6 8.0 0.00 0.91 0.18 78 941.6
20200530153326 22 224 1.6 6.4 0.00 0.91 0.18 80 941.5
20200530153226 23 224 1.6 6.4 0.00 0.91 0.18 79 941.5
20200530153121 23 224 1.6 6.4 0.00 0.91 0.18 80 941.6
20200530153024 23 223 1.6 6.4 0.00 0.91 0.18 79 941.6
20200530152921 23 223 3.2 6.4 0.00 0.91 0.18 82 941.7
20200530152821 23 218 3.2 6.4 0.00 0.91 0.18 79 941.6
20200530152722 23 345 3.2 6.4 0.00 0.91 0.18 78 941.6
20200530152622 23 323 1.6 6.4 0.00 0.91 0.18 78 941.7
20200530152523 23 5 1.6 6.4 0.00 0.91 0.18 78 941.6
20200530152423 22 335 1.6 6.4 0.00 0.91 0.18 73 941.6
20200530152319 22 265 1.6 6.4 0.00 0.91 0.18 79 941.7
20200530152218 22 304 1.6 4.8 0.00 0.91 0.18 78 941.6
20200530152118 22 304 1.6 4.8 0.00 0.91 0.18 80 941.7
20200530152019 22 355 1.6 4.8 0.00 0.91 0.18 81 941.8
20200530151918 22 191 1.6 4.8 0.00 0.91 0.18 81 941.7
20200530151819 22 174 1.6 4.8 0.00 0.91 0.18 79 941.7
20200530151717 22 174 1.6 4.8 0.00 0.91 0.18 79 941.7
20200530151619 22 174 3.2 4.8 0.00 0.91 0.18 79 941.7
20200530151515 22 173 3.2 8.0 0.00 0.91 0.18 81 941.7
20200530151415 22 175 3.2 8.0 0.00 0.91 0.18 80 941.7
20200530151315 22 175 3.2 8.0 0.00 0.91 0.18 81 941.7
20200530151215 22 175 3.2 8.0 0.00 0.91 0.18 79 941.7
20200530151114 22 175 3.2 8.0 0.00 0.91 0.18 79 941.6
20200530151014 22 210 1.6 8.0 0.00 0.91 0.18 78 941.8
20200530150914 22 176 1.6 8.0 0.00 0.91 0.18 74 941.7
20200530150815 22 286 1.6 8.0 0.00 0.91 0.18 74 941.7
20200530150711 23 290 1.6 8.0 0.00 0.91 0.18 73 941.7
20200530150611 23 290 1.6 8.0 0.00 0.91 0.18 76 941.7
20200530150510 23 306 1.6 6.4 0.00 0.91 0.18 83 941.7
20200530150410 22 109 1.6 4.8 0.00 0.91 0.18 80 941.7
20200530150310 22 110 1.6 4.8 0.00 0.91 0.18 80 941.7
20200530150211 22 111 1.6 4.8 0.00 0.91 0.18 80 941.7
20200530150110 22 109 1.6 4.8 0.00 0.91 0.18 77 941.6
20200530150011 22 235 3.2 4.8 0.00 0.91 0.18 82 941.7
20200530145906 22 240 3.2 4.8 0.00 0.91 0.18 77 941.7
20200530145806 22 196 3.2 4.8 0.00 0.91 0.18 78 941.7
20200530145706 22 193 3.2 4.8 0.00 0.91 0.18 79 941.7
20200530145606 21 181 3.2 4.8 0.00 0.91 0.18 78 941.8
20200530145506 21 225 3.2 4.8 0.00 0.91 0.18 81 941.7
20200530145407 22 225 3.2 4.8 0.00 0.91 0.18 79 941.8
20200530145305 22 225 3.2 4.8 0.00 0.91 0.18 80 941.7
20200530145207 22 225 3.2 4.8 0.00 0.91 0.18 77 941.7
20200530145101 22 225 1.6 4.8 0.00 0.91 0.18 80 941.7
20200530145003 22 219 1.6 4.8 0.00 0.91 0.18 82 941.7
20200530144902 22 165 1.6 4.8 0.00 0.91 0.18 83 941.8
20200530144803 21 165 1.6 4.8 0.00 0.91 0.18 83 941.8
20200530144701 21 163 1.6 4.8 0.00 0.91 0.18 79 941.8
20200530144602 21 170 1.6 4.8 0.00 0.91 0.18 82 941.8
20200530144502 21 200 1.6 4.8 0.00 0.91 0.18 80 941.8
20200530144403 21 279 1.6 4.8 0.00 0.91 0.18 81 941.7
20200530144259 21 254 1.6 3.2 0.00 0.91 0.18 81 941.8
20200530144159 21 254 1.6 3.2 0.00 0.91 0.18 85 941.8
20200530144057 21 254 1.6 3.2 0.00 0.91 0.18 84 941.8
20200530143959 21 254 1.6 4.8 0.00 0.91 0.18 83 941.9
20200530143858 21 254 1.6 4.8 0.00 0.91 0.18 85 941.9
20200530143759 21 254 1.6 4.8 0.00 0.91 0.18 82 941.9
20200530143659 21 254 1.6 4.8 0.00 0.91 0.18 84 941.9
20200530143559 21 254 1.6 4.8 0.00 0.91 0.18 83 941.9
20200530143454 21 254 1.6 4.8 0.00 0.91 0.18 82 941.8
20200530143354 21 254 1.6 4.8 0.00 0.91 0.18 80 941.9
20200530143254 21 254 1.6 4.8 0.00 0.91 0.18 81 941.8
20200530143155 21 254 1.6 4.8 0.00 0.91 0.18 80 941.9
20200530143054 21 254 1.6 3.2 0.00 0.91 0.18 81 941.8
20200530142955 21 254 1.6 3.2 0.00 0.91 0.18 80 941.8
20200530142854 21 254 1.6 3.2 0.00 0.91 0.18 83 941.9
20200530142755 21 254 1.6 3.2 0.00 0.91 0.18 81 941.9
20200530142655 21 254 1.6 3.2 0.00 0.91 0.18 80 941.9
20200530142553 21 254 1.6 3.2 0.00 0.91 0.18 82 941.9
20200530142455 21 253 1.6 3.2 0.00 0.91 0.18 80 942.0
20200530142354 21 253 1.6 3.2 0.00 0.91 0.18 83 942.0
20200530142253 21 253 1.6 3.2 0.00 0.91 0.18 82 941.9
20200530142146 21 355 1.6 3.2 0.00 0.91 0.18 83 941.9
20200530142045 21 355 1.6 3.2 0.00 0.91 0.18 83 941.9
20200530141939 21 355 1.6 4.8 0.00 0.91 0.18 83 941.9
20200530141840 21 355 1.6 4.8 0.00 0.91 0.18 82 941.9
20200530141733 21 355 1.6 4.8 0.00 0.91 0.18 82 941.9
20200530141633 21 355 1.6 4.8 0.00 0.91 0.18 85 942.0
20200530141527 21 355 1.6 4.8 0.00 0.91 0.18 80 941.9
20200530141426 21 355 1.6 4.8 0.00 0.91 0.18 80 941.9
20200530141319 21 355 1.6 4.8 0.00 0.91 0.18 82 942.0
20200530141220 21 355 1.6 4.8 0.00 0.91 0.18 80 941.9
20200530141115 21 355 1.6 4.8 0.00 0.91 0.18 80 941.9
20200530141014 21 355 1.6 4.8 0.00 0.91 0.18 82 941.9
20200530140909 21 339 1.6 4.8 0.00 0.91 0.18 84 942.0
20200530140809 21 239 1.6 4.8 0.00 0.91 0.18 85 941.9
20200530140702 21 234 1.6 4.8 0.00 0.91 0.18 83 941.9
20200530140602 21 233 1.6 4.8 0.00 0.91 0.18 84 941.9
20200530140457 21 233 1.6 4.8 0.00 0.91 0.18 83 942.0
20200530140356 21 233 3.2 8.0 0.00 0.91 0.18 82 942.0
20200530140251 21 15 3.2 9.7 0.00 0.91 0.18 86 942.0
20200530140149 21 336 3.2 9.7 0.00 0.91 0.18 85 942.1
20200530140042 21 331 3.2 9.7 0.00 0.91 0.18 85 942.1
20200530135942 21 331 3.2 9.7 0.00 0.91 0.18 86 942.1
20200530135837 21 347 3.2 9.7 0.00 0.91 0.18 86 942.0
20200530135736 21 244 3.2 9.7 0.00 0.91 0.18 85 942.0
20200530135630 21 244 3.2 9.7 0.00 0.91 0.18 84 942.1
20200530135530 21 310 3.2 9.7 0.00 0.91 0.18 85 942.1
20200530135423 21 327 1.6 9.7 0.00 0.91 0.18 85 942.0
20200530135325 21 310 1.6 9.7 0.00 0.91 0.18 85 942.1
20200530135219 21 303 1.6 6.4 0.00 0.91 0.18 85 942.1
20200530135118 21 296 1.6 6.4 0.00 0.91 0.18 85 942.0
20200530135012 21 296 1.6 6.4 0.00 0.91 0.18 83 942.0
20200530134913 21 296 1.6 6.4 0.00 0.91 0.18 83 942.0
20200530134806 21 0 1.6 6.4 0.00 0.91 0.18 86 942.0
20200530134706 21 333 1.6 6.4 0.00 0.91 0.18 85 942.1
20200530134600 21 289 1.6 6.4 0.00 0.91 0.18 82 942.1
20200530134500 21 289 1.6 6.4 0.00 0.91 0.18 85 942.0
20200530134355 21 320 1.6 4.8 0.00 0.91 0.18 84 942.1
20200530134254 21 320 1.6 4.8 0.00 0.91 0.18 83 942.1
20200530134148 21 320 1.6 4.8 0.00 0.91 0.18 83 942.2
20200530134048 21 320 1.6 4.8 0.00 0.91 0.18 82 942.2
20200530133942 21 297 1.6 4.8 0.00 0.91 0.18 81 942.2
20200530133842 21 327 1.6 4.8 0.00 0.91 0.18 84 942.1
20200530133736 21 329 1.6 4.8 0.00 0.91 0.18 83 942.1
20200530133636 21 333 1.6 8.0 0.00 0.91 0.18 83 942.2
20200530133530 21 298 3.2 9.7 0.00 0.91 0.18 84 942.2
20200530133430 21 301 3.2 9.7 0.00 0.91 0.18 86 942.2
20200530133323 21 300 3.2 9.7 0.00 0.91 0.18 83 942.1
20200530133224 21 319 3.2 9.7 0.00 0.91 0.18 84 942.1
20200530133117 21 313 3.2 9.7 0.00 0.91 0.18 86 942.1
20200530133018 21 313 3.2 9.7 0.00 0.91 0.18 83 942.1
20200530132911 21 313 3.2 9.7 0.00 0.91 0.18 84 942.1
20200530132813 21 282 3.2 9.7 0.00 0.91 0.18 83 942.1
20200530132707 21 282 3.2 9.7 0.00 0.91 0.18 82 942.1
20200530132606 21 328 1.6 8.0 0.00 0.91 0.18 86 942.1
20200530132501 21 319 1.6 6.4 0.00 0.91 0.18 87 942.2
20200530132401 21 321 1.6 6.4 0.00 0.91 0.18 86 942.1
20200530132303 21 321 1.6 6.4 0.00 0.91 0.18 85 942.1
20200530132201 21 316 1.6 6.4 0.00 0.91 0.18 85 942.2
20200530132059 21 331 1.6 6.4 0.00 0.91 0.18 84 942.1
20200530131957 21 295 1.6 6.4 0.00 0.91 0.18 87 942.1
20200530131858 21 269 3.2 6.4 0.00 0.91 0.18 86 942.1
20200530131759 21 269 3.2 6.4 0.00 0.91 0.18 84 942.1
20200530131658 21 355 3.2 6.4 0.00 0.91 0.18 85 942.1
20200530131553 21 25 3.2 6.4 0.00 0.91 0.18 86 942.1
20200530131453 21 344 3.2 6.4 0.00 0.91 0.18 86 942.0
20200530131346 21 0 1.6 6.4 0.00 0.91 0.18 88 942.1
20200530131246 21 311 1.6 6.4 0.00 0.91 0.18 86 942.1
20200530131140 21 344 1.6 6.4 0.00 0.91 0.18 86 942.1
20200530131040 21 308 1.6 6.4 0.00 0.91 0.18 85 942.0
20200530130933 21 346 1.6 6.4 0.00 0.91 0.18 86 942.1
20200530130835 20 355 1.6 6.4 0.00 0.91 0.18 88 942.1
20200530130728 21 307 1.6 4.8 0.00 0.91 0.18 88 942.1
20200530130628 21 307 1.6 4.8 0.00 0.91 0.18 87 942.1
20200530130522 21 307 1.6 4.8 0.00 0.91 0.18 87 942.1
20200530130423 20 338 1.6 4.8 0.00 0.91 0.18 87 942.1
20200530130315 20 338 1.6 4.8 0.00 0.91 0.18 87 942.2
20200530130216 20 322 0.0 3.2 0.00 0.91 0.18 88 942.2
20200530130111 20 323 0.0 3.2 0.00 0.91 0.18 88 942.2
20200530130010 20 323 0.0 3.2 0.00 0.91 0.18 88 942.2
20200530125904 20 323 0.0 3.2 0.00 0.91 0.18 89 942.3
20200530125804 20 323 0.0 3.2 0.00 0.91 0.18 89 942.3
20200530125657 20 323 1.6 3.2 0.00 0.91 0.18 89 942.2
20200530125558 20 323 1.6 3.2 0.00 0.91 0.18 87 942.2
20200530125452 20 323 1.6 3.2 0.00 0.91 0.18 90 942.2
20200530125352 20 323 1.6 3.2 0.00 0.91 0.18 89 942.2
20200530125246 20 323 1.6 3.2 0.00 0.91 0.18 90 942.2
20200530125146 20 323 1.6 3.2 0.00 0.91 0.18 90 942.2
20200530125041 20 323 1.6 3.2 0.00 0.91 0.18 89 942.2
20200530124940 20 323 1.6 3.2 0.00 0.91 0.18 89 942.2
20200530124835 20 323 1.6 4.8 0.00 0.91 0.18 89 942.2
20200530124734 20 323 1.6 4.8 0.00 0.91 0.18 90 942.2
20200530124628 20 323 1.6 4.8 0.00 0.91 0.18 90 942.2
20200530124527 20 323 1.6 4.8 0.00 0.91 0.18 89 942.2
20200530124423 19 323 1.6 4.8 0.00 0.91 0.18 89 942.1
20200530124322 20 323 1.6 4.8 0.00 0.91 0.18 90 942.1
20200530124215 20 341 1.6 4.8 0.00 0.91 0.18 90 942.2
20200530124116 20 341 1.6 4.8 0.00 0.91 0.18 90 942.1
20200530124011 20 341 1.6 4.8 0.00 0.91 0.18 90 942.1
20200530123910 20 341 1.6 4.8 0.00 0.91 0.18 90 942.1
20200530123804 19 244 1.6 3.2 0.00 0.91 0.18 90 942.1
20200530123704 19 244 1.6 3.2 0.00 0.91 0.18 90 942.0
20200530123557 19 244 1.6 3.2 0.00 0.91 0.18 90 942.1
20200530123457 19 244 1.6 3.2 0.00 0.91 0.18 90 942.1
20200530123350 19 244 1.6 3.2 0.00 0.91 0.18 90 942.0
20200530123250 19 244 1.6 3.2 0.00 0.91 0.18 89 942.0
20200530123145 19 244 1.6 3.2 0.00 0.91 0.18 90 941.9
20200530123043 19 244 1.6 3.2 0.00 0.91 0.18 89 941.9
20200530122939 19 244 1.6 3.2 0.00 0.91 0.18 89 942.0
20200530122838 19 242 1.6 3.2 0.00 0.91 0.18 90 942.0
20200530122732 19 242 1.6 3.2 0.00 0.91 0.18 90 942.0
20200530122632 19 242 1.6 3.2 0.00 0.91 0.18 90 942.0
20200530122526 19 242 1.6 3.2 0.00 0.91 0.18 89 942.0
20200530122426 19 242 1.6 3.2 0.00 0.91 0.18 90 942.0
20200530122320 19 242 1.6 3.2 0.00 0.91 0.18 90 942.0
20200530122220 19 244 1.6 3.2 0.00 0.91 0.18 90 941.9
20200530122114 19 244 1.6 3.2 0.00 0.91 0.18 90 941.9
20200530122013 19 244 1.6 3.2 0.00 0.91 0.18 91 941.9
20200530121905 19 244 1.6 3.2 0.00 0.91 0.18 91 941.9
20200530121806 19 244 1.6 3.2 0.00 0.91 0.18 90 941.8
20200530121700 19 244 1.6 3.2 0.00 0.91 0.18 90 941.9
20200530121559 19 244 1.6 3.2 0.00 0.91 0.18 90 941.9
20200530121455 19 244 1.6 3.2 0.00 0.91 0.18 91 941.8
20200530121354 19 244 1.6 3.2 0.00 0.91 0.18 90 941.8
20200530121251 19 244 1.6 3.2 0.00 0.91 0.18 91 941.8
20200530121149 18 244 1.6 3.2 0.00 0.91 0.18 91 941.8
20200530121048 18 244 1.6 3.2 0.00 0.91 0.18 91 941.7
20200530120948 18 244 1.6 3.2 0.00 0.91 0.18 91 941.7
20200530120847 18 244 1.6 3.2 0.00 0.91 0.18 91 941.7
20200530120747 18 244 1.6 3.2 0.00 0.91 0.18 91 941.8
20200530120646 18 244 1.6 3.2 0.00 0.91 0.18 91 941.8
20200530120547 18 244 1.6 3.2 0.00 0.91 0.18 91 941.7
20200530120445 18 244 1.6 3.2 0.00 0.91 0.18 92 941.7
20200530120341 18 244 1.6 3.2 0.00 0.91 0.18 92 941.7
20200530120240 18 244 1.6 4.8 0.00 0.91 0.18 92 941.6
20200530120134 18 244 1.6 4.8 0.00 0.91 0.18 92 941.6
20200530120034 18 244 1.6 4.8 0.00 0.91 0.18 92 941.7
20200530115927 18 244 1.6 4.8 0.00 0.91 0.18 92 941.7
20200530115829 18 244 1.6 4.8 0.00 0.91 0.18 92 941.7
20200530115724 18 244 1.6 4.8 0.00 0.91 0.18 92 941.6
20200530115623 18 244 1.6 4.8 0.00 0.91 0.18 92 941.6
20200530115523 18 244 1.6 4.8 0.00 0.91 0.18 93 941.6
20200530115422 18 244 1.6 4.8 0.00 0.91 0.18 93 941.6
20200530115322 18 244 1.6 3.2 0.00 0.91 0.18 93 941.6
20200530115219 18 244 1.6 3.2 0.00 0.91 0.18 93 941.6
20200530115119 18 244 1.6 3.2 0.00 0.91 0.18 93 941.6
20200530115020 18 244 1.6 3.2 0.00 0.91 0.18 93 941.6
20200530114920 18 244 1.6 3.2 0.00 0.91 0.18 93 941.6
20200530114814 18 244 1.6 3.2 0.00 0.91 0.18 93 941.7
20200530114714 18 244 1.6 3.2 0.00 0.91 0.18 93 941.5
20200530114608 18 244 1.6 3.2 0.00 0.91 0.18 93 941.6
20200530114509 18 244 1.6 4.8 0.00 0.91 0.18 93 941.6
20200530114401 18 244 1.6 4.8 0.00 0.91 0.18 93 941.6
20200530114302 18 244 1.6 4.8 0.00 0.91 0.18 93 941.5
20200530114157 18 244 1.6 4.8 0.00 0.91 0.18 93 941.5
20200530114056 18 244 3.2 4.8 0.00 0.91 0.18 93 941.5
20200530113949 18 244 3.2 4.8 0.00 0.91 0.18 93 941.5
20200530113850 18 244 3.2 4.8 0.00 0.91 0.18 93 941.6
20200530113745 18 244 3.2 4.8 0.00 0.91 0.18 94 941.5
20200530113644 18 244 3.2 4.8 0.00 0.91 0.18 94 941.5
20200530113537 18 244 3.2 4.8 0.00 0.91 0.18 94 941.6
20200530113332 18 257 3.2 4.8 0.00 0.91 0.18 94 941.5
20200530113232 18 257 3.2 4.8 0.00 0.91 0.18 94 941.4
20200530113125 18 257 3.2 4.8 0.00 0.91 0.18 94 941.5
20200530113026 18 257 3.2 4.8 0.00 0.91 0.18 94 941.5
20200530112919 18 257 3.2 4.8 0.00 0.91 0.18 94 941.4
20200530112821 18 254 3.2 4.8 0.00 0.91 0.18 94 941.5
20200530112714 18 254 3.2 4.8 0.00 0.91 0.18 94 941.5
20200530112614 18 254 3.2 4.8 0.00 0.91 0.18 94 941.4
20200530112509 17 254 3.2 4.8 0.00 0.91 0.18 94 941.5
20200530112408 17 254 3.2 4.8 0.00 0.91 0.18 95 941.5
20200530112305 17 254 3.2 4.8 0.00 0.91 0.18 95 941.5
20200530112202 17 255 3.2 4.8 0.00 0.91 0.18 95 941.4
20200530112056 17 255 3.2 4.8 0.00 0.91 0.18 95 941.5
20200530111956 17 255 3.2 4.8 0.00 0.91 0.18 96 941.5
20200530111850 17 255 3.2 4.8 0.00 0.91 0.18 95 941.5
20200530111750 17 255 3.2 4.8 0.00 0.91 0.18 96 941.5
20200530111645 17 255 3.2 4.8 0.00 0.91 0.18 96 941.6
20200530111544 17 255 3.2 4.8 0.00 0.91 0.18 96 941.5
20200530111438 17 255 3.2 4.8 0.00 0.91 0.18 96 941.5
20200530111337 17 255 3.2 4.8 0.00 0.91 0.18 96 941.5
20200530111231 17 255 3.2 4.8 0.00 0.91 0.18 97 941.5
20200530111131 17 255 3.2 4.8 0.00 0.91 0.18 97 941.6
20200530111026 17 254 3.2 4.8 0.00 0.91 0.18 97 941.5
20200530110926 17 255 3.2 4.8 0.00 0.91 0.18 97 941.5
20200530110821 17 252 3.2 4.8 0.00 0.91 0.18 97 941.5
20200530110720 17 252 3.2 4.8 0.00 0.91 0.18 97 941.4
20200530110613 17 254 3.2 4.8 0.00 0.91 0.18 97 941.5
20200530110515 17 254 3.2 4.8 0.00 0.91 0.18 97 941.5
20200530110408 17 250 3.2 4.8 0.00 0.91 0.18 97 941.5
20200530110308 17 250 3.2 4.8 0.00 0.91 0.18 97 941.5
20200530110202 17 240 3.2 4.8 0.00 0.91 0.18 97 941.5
20200530110102 17 240 3.2 6.4 0.00 0.91 0.18 97 941.4
20200530105956 17 240 4.8 6.4 0.00 0.91 0.18 97 941.5
20200530105856 17 240 4.8 6.4 0.00 0.91 0.18 97 941.5
20200530105750 17 240 4.8 6.4 0.00 0.91 0.18 97 941.5
20200530105650 17 240 4.8 6.4 0.00 0.91 0.18 97 941.5
20200530105544 17 240 4.8 6.4 0.00 0.91 0.18 97 941.5
20200530105444 17 240 4.8 6.4 0.00 0.91 0.18 96 941.5
20200530105338 17 240 4.8 6.4 0.00 0.91 0.18 96 941.5
20200530105238 17 240 4.8 6.4 0.00 0.91 0.18 96 941.5
20200530105132 17 240 4.8 4.8 0.00 0.91 0.18 96 941.5
20200530105033 17 240 4.8 4.8 0.00 0.91 0.18 96 941.5
20200530104926 17 240 4.8 4.8 0.00 0.91 0.18 96 941.5
20200530104826 17 240 3.2 4.8 0.00 0.91 0.18 96 941.5
20200530104720 17 240 3.2 4.8 0.00 0.91 0.18 96 941.5
20200530104627 17 240 3.2 4.8 0.00 0.91 0.18 96 941.4
20200530104514 17 248 3.2 4.8 0.00 0.91 0.18 97 941.4
20200530104414 17 246 3.2 4.8 0.00 0.91 0.18 97 941.4
20200530104307 17 246 3.2 4.8 0.00 0.91 0.18 97 941.5
20200530104208 17 246 3.2 4.8 0.00 0.91 0.18 97 941.4
20200530104102 17 246 3.2 4.8 0.00 0.91 0.18 97 941.4
20200530104002 17 245 3.2 4.8 0.00 0.91 0.18 97 941.3
20200530103855 17 245 3.2 4.8 0.00 0.91 0.18 97 941.4
20200530103756 17 245 3.2 4.8 0.00 0.91 0.18 97 941.4
20200530103649 17 245 3.2 4.8 0.00 0.91 0.18 97 941.4
20200530103550 17 245 3.2 4.8 0.00 0.91 0.18 98 941.4
20200530103444 17 245 3.2 4.8 0.00 0.91 0.18 97 941.4
20200530103344 17 245 3.2 4.8 0.00 0.91 0.18 97 941.4
20200530103237 17 245 3.2 4.8 0.00 0.91 0.18 98 941.3
20200530103138 17 245 3.2 4.8 0.00 0.91 0.18 98 941.4
20200530103031 17 245 3.2 4.8 0.00 0.91 0.18 98 941.3
20200530102932 17 245 3.2 4.8 0.00 0.91 0.18 98 941.4
20200530102825 17 245 3.2 4.8 0.00 0.91 0.18 98 941.3
20200530102726 17 246 3.2 4.8 0.00 0.91 0.18 98 941.4
20200530102620 17 246 3.2 4.8 0.00 0.91 0.18 98 941.3
20200530102520 17 246 3.2 4.8 0.00 0.91 0.18 98 941.2
20200530102412 17 246 3.2 4.8 0.00 0.91 0.18 98 941.4
20200530102314 17 246 3.2 4.8 0.00 0.91 0.18 98 941.3
20200530102208 17 246 3.2 4.8 0.00 0.91 0.18 98 941.4
20200530102109 17 246 3.2 4.8 0.00 0.91 0.18 98 941.4
20200530102001 17 246 3.2 4.8 0.00 0.91 0.18 98 941.4
20200530101902 17 246 3.2 4.8 0.00 0.91 0.18 98 941.3
20200530101756 17 246 3.2 6.4 0.00 0.91 0.18 98 941.3
20200530101656 17 246 3.2 6.4 0.00 0.91 0.18 98 941.4
20200530101550 17 246 3.2 6.4 0.00 0.91 0.18 98 941.3
20200530101450 17 246 3.2 6.4 0.00 0.91 0.18 98 941.3
20200530101345 17 245 3.2 6.4 0.00 0.91 0.18 98 941.3
20200530101244 17 245 3.2 6.4 0.00 0.91 0.18 98 941.3
20200530101138 17 245 3.2 6.4 0.00 0.91 0.18 98 941.3
20200530101038 17 245 3.2 6.4 0.00 0.91 0.18 98 941.3
20200530100931 17 246 3.2 6.4 0.00 0.91 0.18 98 941.3
20200530100832 17 245 3.2 4.8 0.00 0.91 0.18 98 941.3
20200530100725 17 246 3.2 4.8 0.00 0.91 0.18 98 941.3
20200530100626 17 248 3.2 4.8 0.00 0.91 0.18 98 941.4
20200530100519 17 248 3.2 4.8 0.00 0.91 0.18 98 941.3
20200530100420 17 248 3.2 4.8 0.00 0.91 0.18 98 941.3
20200530100315 17 248 3.2 4.8 0.00 0.91 0.18 98 941.3
20200530100214 17 248 3.2 6.4 0.00 0.91 0.18 98 941.3
20200530100107 17 248 3.2 6.4 0.00 0.91 0.18 98 941.3
20200530100008 17 248 3.2 6.4 0.00 0.91 0.18 98 941.3
20200530095901 17 240 3.2 6.4 0.00 0.91 0.18 98 941.2
20200530095802 17 240 3.2 6.4 0.00 0.91 0.18 98 941.2
20200530095656 17 240 4.8 6.4 0.00 0.91 0.18 98 941.2
20200530095556 17 240 4.8 6.4 0.00 0.91 0.18 98 941.2
20200530095449 17 240 4.8 6.4 0.00 0.91 0.18 98 941.2
20200530095350 17 240 4.8 6.4 0.00 0.91 0.18 98 941.2
20200530095244 17 240 4.8 6.4 0.00 0.91 0.18 98 941.2
20200530095144 17 240 4.8 6.4 0.00 0.91 0.18 98 941.2
20200530095037 17 240 4.8 6.4 0.00 0.91 0.18 98 941.1
20200530094938 17 240 4.8 6.4 0.00 0.91 0.18 98 941.2
20200530094832 17 240 4.8 6.4 0.00 0.91 0.18 98 941.2
20200530094732 17 240 4.8 6.4 0.00 0.91 0.18 98 941.2
20200530094625 17 240 3.2 6.4 0.00 0.91 0.18 98 941.2
20200530094527 17 240 3.2 6.4 0.00 0.91 0.18 98 941.2
20200530094419 17 240 3.2 6.4 0.00 0.91 0.18 98 941.2
20200530094321 17 240 3.2 6.4 0.00 0.91 0.18 98 941.2
20200530094213 17 240 3.2 6.4 0.00 0.91 0.18 98 941.1
20200530094114 17 240 3.2 6.4 0.00 0.91 0.18 98 941.1
20200530094007 17 240 3.2 6.4 0.00 0.91 0.18 98 941.1
20200530093802 17 240 3.2 6.4 0.00 0.91 0.18 98 941.1
20200530093702 17 240 3.2 6.4 0.00 0.91 0.18 98 941.0
20200530093556 17 240 3.2 6.4 0.00 0.91 0.18 98 941.0
20200530093455 17 240 3.2 4.8 0.00 0.91 0.18 98 941.0
20200530093349 17 240 3.2 4.8 0.00 0.91 0.18 98 941.0
20200530093250 17 240 3.2 4.8 0.00 0.91 0.18 98 941.0
20200530093145 17 240 3.2 4.8 0.00 0.91 0.18 98 941.0
20200530093044 17 240 3.2 4.8 0.00 0.91 0.18 98 941.0
20200530092937 17 240 3.2 4.8 0.00 0.91 0.18 98 941.0
20200530092837 17 240 3.2 4.8 0.00 0.91 0.18 98 941.0
20200530092731 17 240 3.2 4.8 0.00 0.91 0.18 98 941.1
20200530092632 17 240 3.2 4.8 0.00 0.91 0.18 98 941.0
20200530092526 17 240 3.2 4.8 0.00 0.91 0.18 98 941.1
20200530092426 17 240 3.2 4.8 0.00 0.91 0.18 98 941.0
20200530092319 17 240 3.2 4.8 0.00 0.91 0.18 98 941.0
20200530092220 17 240 3.2 4.8 0.00 0.91 0.18 97 941.0
20200530092113 17 240 3.2 4.8 0.00 0.91 0.18 97 941.0
20200530092014 17 240 3.2 4.8 0.00 0.91 0.18 97 940.9
20200530091907 17 240 3.2 4.8 0.00 0.91 0.18 97 940.9
20200530091814 17 240 3.2 4.8 0.00 0.91 0.18 97 941.0
20200530091602 17 240 3.2 4.8 0.00 0.91 0.18 97 940.9
20200530091456 17 240 3.2 4.8 0.00 0.91 0.18 97 940.9
20200530091356 17 240 3.2 4.8 0.00 0.91 0.18 97 940.9
20200530091251 17 240 3.2 4.8 0.00 0.91 0.18 97 940.9
20200530091149 17 240 3.2 4.8 0.00 0.91 0.18 97 940.9
20200530091044 17 240 3.2 4.8 0.00 0.91 0.18 97 940.9
20200530090944 17 240 3.2 4.8 0.00 0.91 0.18 96 940.9
20200530090835 17 240 3.2 4.8 0.00 0.91 0.18 96 940.9
20200530090735 17 240 3.2 4.8 0.00 0.91 0.18 96 940.8
20200530090627 17 240 3.2 4.8 0.00 0.91 0.18 96 940.8
20200530090528 17 240 3.2 4.8 0.00 0.91 0.18 96 940.8
20200530090421 17 240 3.2 6.4 0.00 0.91 0.18 96 940.9
20200530090322 17 240 3.2 6.4 0.00 0.91 0.18 96 940.8
20200530090215 17 240 3.2 6.4 0.00 0.91 0.18 96 940.8
20200530090116 17 240 3.2 6.4 0.00 0.91 0.18 96 940.9
20200530090010 17 240 3.2 6.4 0.00 0.91 0.18 95 940.9
20200530085909 17 240 3.2 6.4 0.00 0.91 0.18 95 940.8
20200530085803 18 240 3.2 6.4 0.00 0.91 0.18 95 940.9
20200530085704 18 240 3.2 6.4 0.00 0.91 0.18 95 940.9
20200530085559 18 240 3.2 6.4 0.00 0.91 0.18 95 940.8
20200530085458 18 240 3.2 4.8 0.00 0.91 0.18 95 940.8
20200530085352 18 240 3.2 4.8 0.00 0.91 0.18 95 940.9
20200530085252 18 240 3.2 4.8 0.00 0.91 0.18 95 940.7
20200530085146 18 240 3.2 4.8 0.00 0.91 0.18 95 940.9
20200530085046 18 240 3.2 4.8 0.00 0.91 0.18 96 940.9
20200530084939 17 240 3.2 4.8 0.00 0.91 0.18 96 940.9
20200530084840 17 240 3.2 4.8 0.00 0.91 0.18 96 940.9
20200530084733 17 240 3.2 4.8 0.00 0.91 0.18 96 941.0
20200530084634 17 240 3.2 4.8 0.00 0.91 0.18 96 940.9
20200530084528 17 240 3.2 4.8 0.00 0.91 0.18 96 940.9
20200530084428 17 240 3.2 4.8 0.00 0.91 0.18 96 940.9
20200530084322 17 240 3.2 4.8 0.00 0.91 0.18 96 940.9
20200530084222 17 240 3.2 4.8 0.00 0.91 0.18 96 940.9
20200530084120 17 240 3.2 4.8 0.00 0.91 0.18 96 940.9
20200530084017 17 240 3.2 4.8 0.00 0.91 0.18 96 940.9
20200530083917 17 240 3.2 4.8 0.00 0.91 0.18 96 940.9
20200530083816 17 240 3.2 4.8 0.00 0.91 0.18 96 941.0
20200530083715 17 240 3.2 4.8 0.00 0.91 0.18 96 941.0
20200530083613 17 240 3.2 4.8 0.00 0.91 0.18 96 941.0
20200530083511 17 240 3.2 4.8 0.00 0.91 0.18 96 940.9
20200530083411 17 240 3.2 4.8 0.00 0.91 0.18 96 941.0
20200530083312 17 240 3.2 4.8 0.00 0.91 0.18 96 940.9
20200530083205 17 240 3.2 4.8 0.00 0.91 0.18 96 940.9
20200530083106 17 240 3.2 4.8 0.00 0.91 0.18 96 940.8
20200530082959 17 240 3.2 4.8 0.00 0.91 0.18 96 940.9
20200530082900 17 240 3.2 4.8 0.00 0.91 0.18 96 940.9
20200530082753 17 240 3.2 4.8 0.00 0.91 0.18 96 941.0
20200530082655 17 240 3.2 4.8 0.00 0.91 0.18 97 940.9
20200530082548 17 240 3.2 4.8 0.00 0.91 0.18 97 940.9
20200530082448 17 240 3.2 4.8 0.00 0.91 0.18 97 941.0
20200530082341 17 240 3.2 4.8 0.00 0.91 0.18 97 941.0
20200530082242 17 240 3.2 4.8 0.00 0.91 0.18 97 941.0
20200530082135 17 240 3.2 4.8 0.00 0.91 0.18 97 940.9
20200530082036 17 240 3.2 4.8 0.00 0.91 0.18 98 940.9
20200530081929 17 240 3.2 4.8 0.00 0.91 0.18 98 940.9
20200530081830 17 240 3.2 4.8 0.00 0.91 0.18 98 940.9
20200530081723 17 240 3.2 4.8 0.00 0.91 0.18 98 940.9
20200530081625 17 240 3.2 4.8 0.00 0.91 0.18 98 940.9
20200530081518 17 240 3.2 6.4 0.00 0.91 0.18 98 940.9
20200530081418 17 240 3.2 6.4 0.00 0.91 0.18 98 940.9
20200530081311 17 240 3.2 6.4 0.00 0.91 0.18 98 940.9
20200530081212 17 240 3.2 6.4 0.00 0.91 0.18 98 940.9
20200530081105 17 240 3.2 6.4 0.00 0.91 0.18 98 941.0
20200530081006 17 240 3.2 6.4 0.00 0.91 0.18 98 940.9
20200530080859 17 240 3.2 6.4 0.00 0.91 0.18 98 941.0
20200530080800 17 240 3.2 6.4 0.00 0.91 0.18 98 940.9
20200530080653 17 240 3.2 6.4 0.00 0.91 0.18 98 940.9
20200530080554 17 240 3.2 4.8 0.00 0.91 0.18 98 940.8
20200530080448 17 240 3.2 4.8 0.00 0.91 0.18 98 940.8
20200530080349 17 240 3.2 4.8 0.00 0.91 0.18 98 940.9
20200530080242 17 240 3.2 4.8 0.00 0.91 0.18 98 940.8
20200530080142 17 240 3.2 4.8 0.00 0.91 0.18 98 940.9
20200530080036 17 240 3.2 4.8 0.00 0.91 0.18 98 940.9
20200530075936 17 240 3.2 4.8 0.00 0.91 0.18 98 940.8
20200530075831 17 240 3.2 4.8 0.00 0.91 0.18 98 940.8
20200530075730 17 240 3.2 4.8 0.00 0.91 0.18 98 940.8
20200530075622 17 240 3.2 4.8 0.00 0.91 0.18 98 940.9
20200530075524 17 240 3.2 4.8 0.00 0.91 0.18 98 940.9
20200530075417 17 240 3.2 4.8 0.00 0.91 0.18 98 940.9
20200530075319 17 240 3.2 4.8 0.00 0.91 0.18 98 940.9
20200530075210 17 240 3.2 4.8 0.00 0.91 0.18 98 940.8
20200530075113 17 240 3.2 4.8 0.00 0.91 0.18 98 940.9
20200530075005 17 240 3.2 4.8 0.00 0.91 0.18 98 940.8
20200530074907 17 240 3.2 4.8 0.00 0.91 0.18 98 940.8
20200530074800 17 240 3.2 4.8 0.00 0.91 0.18 98 940.8
20200530074700 17 240 3.2 4.8 0.00 0.91 0.18 98 940.8